Wacker, Stefan (2026): Meteorological synoptical observations from station Lindenberg (2023-08) [dataset]. Meteorologisches Observatorium Lindenberg - Richard-Aßmann-Observatorium, PANGAEA, https://doi.org/10.1594/PANGAEA.991439
Always quote citation above when using data! You can download the citation in several formats below.
Published: 2026-02-12 • DOI registered: 2026-03-13
Other version:
Wacker, Stefan (2026): BSRN Station-to-archive file for station Lindenberg (2023-08) [dataset]. ftp://ftp.bsrn.awi.de/lin/lin0823.dat.gz
Project(s):
Coverage:
Latitude: 52.210000 * Longitude: 14.122000
Date/Time Start: 2023-08-01T00:00:00 * Date/Time End: 2023-08-31T23:00:00
Minimum Elevation: 125.0 m * Maximum Elevation: 125.0 m
Event(s):
LIN (Lindenberg) * Latitude: 52.210000 * Longitude: 14.122000 * Date/Time: 1994-09-01T00:00:00 * Elevation: 125.0 m * Location: Germany * Method/Device: Monitoring station (MONS) * Comment: BSRN station no: 12; Surface type: cultivated; Topography type: hilly, rural; Horizon: doi:10.1594/PANGAEA.669521; Station scientist: Stefan Wacker (Stefan.Wacker@dwd.de)
Parameter(s):
| # | Name | Short Name | Unit | Principal Investigator | Method/Device | Comment |
|---|---|---|---|---|---|---|
| 1 | DATE/TIME | Date/Time | Wacker, Stefan | Geocode | ||
| 2 | Total cloud amount | N | code | Wacker, Stefan | Visual observation | |
| 3 | Wind direction | dd | deg | Wacker, Stefan | Anemometer | |
| 4 | Wind speed | ff | m/s | Wacker, Stefan | Anemometer | |
| 5 | Temperature, air | TTT | °C | Wacker, Stefan | Thermometer | |
| 6 | Dew/frost point | TdTdTd | °C | Wacker, Stefan | Hygrometer (HYGRO) | |
| 7 | Station pressure | PoPoPoPo | hPa | Wacker, Stefan | Barometer (BARO) | |
| 8 | Pressure, atmospheric | PPPP | hPa | Wacker, Stefan | Barometer (BARO) | |
| 9 | Present weather | ww | code | Wacker, Stefan | Visual observation | |
| 10 | Past weather1 | W1 | code | Wacker, Stefan | Visual observation | |
| 11 | Past weather2 | W2 | code | Wacker, Stefan | Visual observation | |
| 12 | Code | Code | Wacker, Stefan | YYGG9 IIiii Nddff 1SnTTT 2SnTdTdTd 3P0P0P0 4PPPP 7wwW1W2 8NhClCmCh 333 8NsChshs 8NsChshs 8NsChshs |
License:
Status:
Curation Level: Enhanced curation (CurationLevelC)
Size:
6717 data points
Data
| 1 Date/Time | 2 N [code] | 3 dd [deg] | 4 ff [m/s] | 5 TTT [°C] | 6 TdTdTd [°C] | 7 PoPoPoPo [hPa] | 8 PPPP [hPa] | 9 ww [code] | 10 W1 [code] | 11 W2 [code] | 12 Code |
|---|---|---|---|---|---|---|---|---|---|---|---|
| 2023-08-01T00:00 | 8 | 210 | 4 | 17.8 | 14.0 | 991 | 1003 | 16 | 1 | 1 | 01009 10393 82104 10178 20140 39908 40029 71611615 8//// |
| 2023-08-01T01:00 | 8 | 230 | 4 | 16.3 | 15.2 | 990 | 1002 | 16 | 1 | 1 | 01019 10393 82304 10163 20152 39900 40021 71611616 8//// |
| 2023-08-01T02:00 | 7 | 200 | 4 | 16.1 | 15.4 | 989 | 1001 | 15 | 7 | 1 | 01029 10393 72004 10161 20154 39889 40010 71571616 8//// |
| 2023-08-01T03:00 | 8 | 210 | 4 | 16.3 | 15.4 | 988 | 1000 | 12 | 3 | 1 | 01039 10393 82104 10163 20154 39879 40000 71231615 8//// |
| 2023-08-01T04:00 | 8 | 200 | 3 | 16.3 | 15.2 | 987 | 999 | 01049 10393 82003 10163 20152 39872 49993 7//// 8//// | |||
| 2023-08-01T05:00 | 8 | 210 | 3 | 16.6 | 15.3 | 987 | 999 | 01059 10393 82103 10166 20153 39868 49989 7//// 8//// | |||
| 2023-08-01T06:00 | 8 | 210 | 4 | 16.8 | 15.4 | 986 | 998 | 16 | 1 | 1 | 01069 10393 82104 10168 20154 39863 49983 71611615 8//// |
| 2023-08-01T07:00 | 7 | 210 | 4 | 16.7 | 15.9 | 986 | 998 | 16 | 1 | 1 | 01079 10393 72104 10167 20159 39858 49978 71611616 8//// |
| 2023-08-01T08:00 | 7 | 220 | 4 | 16.9 | 16.0 | 986 | 998 | 16 | 1 | 1 | 01089 10393 72204 10169 20160 39857 49977 71611616 8//// |
| 2023-08-01T09:00 | 8 | 220 | 5 | 17.6 | 16.5 | 986 | 998 | 16 | 1 | 1 | 01099 10393 82205 10176 20165 39855 49975 71611616 8//// |
| 2023-08-01T10:00 | 8 | 250 | 5 | 19.3 | 15.8 | 985 | 997 | 12 | 3 | 1 | 01109 10393 82505 10193 20158 39850 49969 71231615 8//// |
| 2023-08-01T11:00 | 8 | 240 | 6 | 19.3 | 15.6 | 985 | 997 | 01119 10393 82406 10193 20156 39853 49972 7//// 8//// | |||
| 2023-08-01T12:00 | 8 | 240 | 7 | 18.8 | 14.9 | 985 | 997 | 16 | 1 | 1 | 01129 10393 82407 10188 20149 39852 49971 71611615 8//// |
| 2023-08-01T13:00 | 7 | 230 | 6 | 17.9 | 16.3 | 985 | 997 | 16 | 1 | 1 | 01139 10393 72306 10179 20163 39853 49973 71611615 8//// |
| 2023-08-01T14:00 | 7 | 260 | 6 | 19.4 | 15.0 | 986 | 998 | 12 | 3 | 1 | 01149 10393 72606 10194 20150 39857 49976 71231615 8//// |
| 2023-08-01T15:00 | 7 | 260 | 6 | 20.4 | 13.8 | 986 | 998 | 10 | 0 | 1 | 01159 10393 72606 10204 20138 39860 49979 71001615 8//// |
| 2023-08-01T16:00 | 6 | 240 | 4 | 20.0 | 13.9 | 987 | 998 | 01169 10393 62404 10200 20139 39866 49985 7//// 8//// | |||
| 2023-08-01T17:00 | 7 | 280 | 5 | 18.2 | 14.9 | 987 | 999 | 16 | 2 | 1 | 01179 10393 72805 10182 20149 39872 49992 716216-1 8//// |
| 2023-08-01T18:00 | 1 | 260 | 2 | 17.9 | 14.4 | 988 | 1000 | 12 | 3 | 1 | 01189 10393 12602 10179 20144 39876 49996 71231615 8//// |
| 2023-08-01T19:00 | 3 | 240 | 3 | 16.1 | 14.3 | 988 | 1000 | 01199 10393 32403 10161 20143 39880 40001 7//// 8//// | |||
| 2023-08-01T20:00 | 2 | 270 | 3 | 16.1 | 13.8 | 989 | 1001 | 12 | 3 | 1 | 01209 10393 22703 10161 20138 39890 40011 71231615 8//// |
| 2023-08-01T21:00 | 0 | 250 | 4 | 15.9 | 12.5 | 990 | 1002 | 10 | 0 | 1 | 01219 10393 02504 10159 20125 39896 40017 71001615 8//// |
| 2023-08-01T22:00 | 0 | 230 | 3 | 14.9 | 11.9 | 990 | 1002 | 01229 10393 02303 10149 20119 39899 40021 7//// 8//// | |||
| 2023-08-01T23:00 | 0 | 230 | 4 | 14.5 | 12.1 | 990 | 1002 | 01239 10393 02304 10145 20121 39901 40023 7//// 8//// | |||
| 2023-08-02T00:00 | 7 | 230 | 4 | 14.9 | 12.4 | 990 | 1002 | 12 | 3 | 1 | 02009 10393 72304 10149 20124 39901 40023 71231615 8//// |
| 2023-08-02T01:00 | 0 | 240 | 5 | 14.8 | 12.5 | 990 | 1002 | 02019 10393 02405 10148 20125 39901 40023 7//// 8//// | |||
| 2023-08-02T02:00 | 5 | 240 | 5 | 14.3 | 12.1 | 990 | 1002 | 02029 10393 52405 10143 20121 39903 40025 7//// 8//// | |||
| 2023-08-02T03:00 | 0 | 230 | 4 | 13.8 | 12.1 | 990 | 1002 | 02039 10393 02304 10138 20121 39901 40023 7//// 8//// | |||
| 2023-08-02T04:00 | 0 | 230 | 3 | 13.4 | 12.0 | 990 | 1002 | 02049 10393 02303 10134 20120 39902 40024 7//// 8//// | |||
| 2023-08-02T05:00 | 6 | 230 | 4 | 14.6 | 12.5 | 991 | 1003 | 02059 10393 62304 10146 20125 39906 40028 7//// 8//// | |||
| 2023-08-02T06:00 | 8 | 220 | 3 | 15.6 | 12.6 | 990 | 1002 | 02069 10393 82203 10156 20126 39902 40023 7//// 8//// | |||
| 2023-08-02T07:00 | 0 | 240 | 5 | 17.3 | 12.7 | 990 | 1002 | 02079 10393 02405 10173 20127 39902 40023 7//// 8//// | |||
| 2023-08-02T08:00 | 2 | 230 | 5 | 19.1 | 12.8 | 990 | 1002 | 02089 10393 22305 10191 20128 39897 40017 7//// 8//// | |||
| 2023-08-02T09:00 | 7 | 240 | 5 | 20.1 | 13.0 | 990 | 1002 | 02099 10393 72405 10201 20130 39896 40016 7//// 8//// | |||
| 2023-08-02T10:00 | 7 | 220 | 4 | 21.0 | 12.9 | 989 | 1001 | 02109 10393 72204 10210 20129 39887 40006 7//// 8//// | |||
| 2023-08-02T11:00 | 8 | 200 | 5 | 21.8 | 13.2 | 988 | 1000 | 02119 10393 82005 10218 20132 39883 40002 7//// 8//// | |||
| 2023-08-02T12:00 | 8 | 200 | 5 | 21.8 | 12.5 | 987 | 999 | 02129 10393 82005 10218 20125 39874 49993 7//// 8//// | |||
| 2023-08-02T13:00 | 8 | 190 | 4 | 21.8 | 12.7 | 986 | 998 | 02139 10393 81904 10218 20127 39865 49983 7//// 8//// | |||
| 2023-08-02T14:00 | 8 | 170 | 3 | 21.8 | 12.9 | 986 | 998 | 12 | 3 | 1 | 02149 10393 81703 10218 20129 39861 49979 712316-1 8//// |
| 2023-08-02T15:00 | 8 | 180 | 3 | 21.5 | 13.6 | 984 | 996 | 12 | 3 | 1 | 02159 10393 81803 10215 20136 39845 49963 71231615 8//// |
| 2023-08-02T16:00 | 8 | 190 | 6 | 21.2 | 12.5 | 985 | 997 | 02169 10393 81906 10212 20125 39849 49968 7//// 8//// | |||
| 2023-08-02T17:00 | 8 | 200 | 4 | 20.3 | 13.3 | 984 | 996 | 02179 10393 82004 10203 20133 39838 49957 7//// 8//// | |||
| 2023-08-02T18:00 | 7 | 170 | 3 | 17.8 | 14.8 | 984 | 996 | 12 | 3 | 1 | 02189 10393 71703 10178 20148 39835 49955 71231615 8//// |
| 2023-08-02T19:00 | 8 | 180 | 3 | 18.0 | 15.0 | 983 | 995 | 02199 10393 81803 10180 20150 39828 49947 7//// 8//// | |||
| 2023-08-02T20:00 | 8 | 170 | 4 | 18.3 | 15.2 | 981 | 993 | 12 | 3 | 1 | 02209 10393 81704 10183 20152 39814 49933 71231615 8//// |
| 2023-08-02T21:00 | 8 | 210 | 3 | 18.1 | 15.1 | 983 | 994 | 10 | 0 | 1 | 02219 10393 82103 10181 20151 39826 49945 71001615 8//// |
| 2023-08-02T22:00 | 3 | 210 | 4 | 18.2 | 14.9 | 982 | 994 | 02229 10393 32104 10182 20149 39825 49944 7//// 8//// | |||
| 2023-08-02T23:00 | 5 | 220 | 4 | 17.9 | 15.1 | 983 | 995 | 02239 10393 52204 10179 20151 39827 49946 7//// 8//// | |||
| 2023-08-03T00:00 | 7 | 220 | 5 | 18.1 | 15.4 | 983 | 995 | 10 | 0 | 1 | 03009 10393 72205 10181 20154 39828 49947 71001615 8//// |
| 2023-08-03T01:00 | 8 | 260 | 6 | 16.8 | 14.6 | 984 | 996 | 15 | 1 | 1 | 03019 10393 82606 10168 20146 39837 49957 71511615 8//// |
| 2023-08-03T02:00 | 8 | 220 | 4 | 17.0 | 14.6 | 984 | 996 | 12 | 3 | 1 | 03029 10393 82204 10170 20146 39842 49962 71231615 8//// |
| 2023-08-03T03:00 | 8 | 220 | 4 | 17.4 | 14.4 | 984 | 996 | 12 | 3 | 1 | 03039 10393 82204 10174 20144 39845 49965 71231615 8//// |
| 2023-08-03T04:00 | 3 | 210 | 4 | 17.2 | 14.1 | 985 | 997 | 12 | 3 | 1 | 03049 10393 32104 10172 20141 39846 49966 71231615 8//// |
| 2023-08-03T05:00 | 5 | 210 | 4 | 18.0 | 13.6 | 985 | 997 | 03059 10393 52104 10180 20136 39848 49968 7//// 8//// | |||
| 2023-08-03T06:00 | 7 | 220 | 5 | 19.4 | 13.7 | 985 | 997 | 10 | 0 | 1 | 03069 10393 72205 10194 20137 39848 49967 71001615 8//// |
| 2023-08-03T07:00 | 4 | 230 | 8 | 21.1 | 13.3 | 985 | 997 | 03079 10393 42308 10211 20133 39851 49970 7//// 8//// | |||
| 2023-08-03T08:00 | 7 | 240 | 9 | 21.7 | 12.6 | 986 | 997 | 03089 10393 72409 10217 20126 39855 49973 7//// 8//// | |||
| 2023-08-03T09:00 | 7 | 230 | 9 | 21.0 | 13.0 | 986 | 998 | 12 | 3 | 1 | 03099 10393 72309 10210 20130 39861 49980 71231615 8//// |
| 2023-08-03T10:00 | 8 | 230 | 10 | 21.6 | 12.5 | 986 | 998 | 12 | 3 | 1 | 03109 10393 82310 10216 20125 39865 49984 71231615 8//// |
| 2023-08-03T11:00 | 4 | 230 | 8 | 22.9 | 12.7 | 986 | 998 | 12 | 3 | 1 | 03119 10393 42308 10229 20127 39863 49981 71231615 8//// |
| 2023-08-03T12:00 | 3 | 230 | 9 | 23.0 | 12.6 | 987 | 999 | 10 | 0 | 1 | 03129 10393 32309 10230 20126 39870 49988 71001615 8//// |
| 2023-08-03T13:00 | 7 | 230 | 10 | 22.5 | 12.0 | 987 | 999 | 03139 10393 72310 10225 20120 39873 49991 7//// 8//// | |||
| 2023-08-03T14:00 | 7 | 240 | 6 | 19.9 | 14.3 | 988 | 1000 | 12 | 3 | 1 | 03149 10393 72406 10199 20143 39882 40001 71231615 8//// |
| 2023-08-03T15:00 | 8 | 220 | 6 | 21.4 | 12.5 | 988 | 1000 | 10 | 0 | 1 | 03159 10393 82206 10214 20125 39883 40002 71001615 8//// |
| 2023-08-03T16:00 | 8 | 230 | 7 | 21.9 | 12.3 | 989 | 1001 | 03169 10393 82307 10219 20123 39887 40006 7//// 8//// | |||
| 2023-08-03T17:00 | 8 | 240 | 9 | 22.1 | 11.9 | 989 | 1001 | 12 | 3 | 1 | 03179 10393 82409 10221 20119 39892 40011 712316-1 8//// |
| 2023-08-03T18:00 | 8 | 240 | 8 | 21.6 | 12.1 | 990 | 1002 | 10 | 0 | 1 | 03189 10393 82408 10216 20121 39897 40016 71001615 8//// |
| 2023-08-03T19:00 | 7 | 240 | 7 | 21.0 | 12.2 | 990 | 1002 | 03199 10393 72407 10210 20122 39903 40022 7//// 8//// | |||
| 2023-08-03T20:00 | 8 | 250 | 8 | 17.7 | 14.5 | 992 | 1004 | 16 | 1 | 1 | 03209 10393 82508 10177 20145 39917 40038 716116-1 8//// |
| 2023-08-03T21:00 | 1 | 250 | 4 | 17.3 | 14.2 | 992 | 1004 | 12 | 3 | 1 | 03219 10393 12504 10173 20142 39920 40041 712316-1 8//// |
| 2023-08-03T22:00 | 0 | 230 | 5 | 17.1 | 13.7 | 992 | 1004 | 03229 10393 02305 10171 20137 39923 40044 7//// 8//// | |||
| 2023-08-03T23:00 | 1 | 220 | 4 | 16.7 | 13.4 | 993 | 1005 | 03239 10393 12204 10167 20134 39928 40049 7//// 8//// | |||
| 2023-08-04T00:00 | 4 | 230 | 5 | 16.8 | 13.4 | 993 | 1006 | 10 | 0 | 1 | 04009 10393 42305 10168 20134 39934 40055 710016-1 8//// |
| 2023-08-04T01:00 | 4 | 230 | 5 | 16.9 | 13.6 | 994 | 1006 | 04019 10393 42305 10169 20136 39938 40059 7//// 8//// | |||
| 2023-08-04T02:00 | 7 | 250 | 5 | 17.3 | 13.6 | 994 | 1006 | 04029 10393 72505 10173 20136 39943 40064 7//// 8//// | |||
| 2023-08-04T03:00 | 5 | 250 | 5 | 16.9 | 13.8 | 995 | 1007 | 04039 10393 52505 10169 20138 39950 40071 7//// 8//// | |||
| 2023-08-04T04:00 | 8 | 250 | 4 | 16.7 | 14.0 | 996 | 1008 | 04049 10393 82504 10167 20140 39956 40078 7//// 8//// | |||
| 2023-08-04T05:00 | 8 | 270 | 4 | 17.1 | 14.1 | 996 | 1008 | 04059 10393 82704 10171 20141 39962 40084 7//// 8//// | |||
| 2023-08-04T06:00 | 7 | 270 | 5 | 17.0 | 13.7 | 997 | 1009 | 04069 10393 72705 10170 20137 39969 40091 7//// 8//// | |||
| 2023-08-04T07:00 | 5 | 300 | 5 | 18.2 | 13.9 | 997 | 1010 | 04079 10393 53005 10182 20139 39974 40095 7//// 8//// | |||
| 2023-08-04T08:00 | 4 | 270 | 5 | 19.0 | 13.1 | 998 | 1010 | 04089 10393 42705 10190 20131 39983 40104 7//// 8//// | |||
| 2023-08-04T09:00 | 4 | 270 | 4 | 19.8 | 12.7 | 999 | 1011 | 04099 10393 42704 10198 20127 39988 40109 7//// 8//// | |||
| 2023-08-04T10:00 | 7 | 280 | 4 | 20.0 | 12.4 | 999 | 1011 | 04109 10393 72804 10200 20124 39991 40112 7//// 8//// | |||
| 2023-08-04T11:00 | 8 | 270 | 3 | 20.1 | 12.4 | 999 | 1011 | 04119 10393 82703 10201 20124 39993 40114 7//// 8//// | |||
| 2023-08-04T12:00 | 7 | 290 | 4 | 21.1 | 11.6 | 999 | 1011 | 04129 10393 72904 10211 20116 39994 40114 7//// 8//// | |||
| 2023-08-04T13:00 | 6 | 270 | 4 | 21.8 | 11.1 | 1000 | 1012 | 04139 10393 62704 10218 20111 39998 40118 7//// 8//// | |||
| 2023-08-04T14:00 | 5 | 270 | 3 | 21.8 | 11.3 | 1000 | 1012 | 04149 10393 52703 10218 20113 39999 40119 7//// 8//// | |||
| 2023-08-04T15:00 | 8 | 290 | 3 | 22.0 | 11.9 | 1000 | 1012 | 04159 10393 82903 10220 20119 30002 40122 7//// 8//// | |||
| 2023-08-04T16:00 | 7 | 290 | 2 | 21.8 | 13.5 | 1000 | 1012 | 04169 10393 72902 10218 20135 30001 40121 7//// 8//// | |||
| 2023-08-04T17:00 | 8 | 260 | 3 | 21.4 | 12.5 | 1000 | 1012 | 04179 10393 82603 10214 20125 30001 40121 7//// 8//// | |||
| 2023-08-04T18:00 | 7 | 290 | 2 | 20.7 | 12.3 | 1000 | 1012 | 04189 10393 72902 10207 20123 30004 40125 7//// 8//// | |||
| 2023-08-04T19:00 | 6 | 290 | 2 | 18.3 | 12.3 | 1001 | 1013 | 04199 10393 62902 10183 20123 30012 40134 7//// 8//// | |||
| 2023-08-04T20:00 | 4 | 280 | 2 | 17.2 | 12.5 | 1002 | 1014 | 04209 10393 42802 10172 20125 30017 40139 7//// 8//// | |||
| 2023-08-04T21:00 | 7 | 270 | 1 | 16.7 | 12.6 | 1002 | 1014 | 04219 10393 72701 10167 20126 30019 40141 7//// 8//// | |||
| 2023-08-04T22:00 | 8 | 290 | 1 | 16.1 | 12.5 | 1002 | 1014 | 04229 10393 82901 10161 20125 30019 40142 7//// 8//// | |||
| 2023-08-04T23:00 | 8 | 290 | 2 | 15.9 | 12.3 | 1002 | 1014 | 04239 10393 82902 10159 20123 30021 40144 7//// 8//// | |||
| 2023-08-05T00:00 | 7 | 310 | 2 | 15.3 | 12.2 | 1002 | 1014 | 05009 10393 73102 10153 20122 30020 40143 7//// 8//// | |||
| 2023-08-05T01:00 | 7 | 310 | 2 | 14.6 | 12.8 | 1002 | 1014 | 05019 10393 73102 10146 20128 30019 40142 7//// 8//// | |||
| 2023-08-05T02:00 | 8 | 340 | 2 | 13.5 | 12.7 | 1002 | 1014 | 05029 10393 83402 10135 20127 30019 40143 7//// 8//// | |||
| 2023-08-05T03:00 | 8 | 310 | 2 | 13.4 | 12.7 | 1002 | 1014 | 05039 10393 83102 10134 20127 30020 40144 7//// 8//// | |||
| 2023-08-05T04:00 | 4 | 320 | 2 | 12.5 | 12.0 | 1002 | 1014 | 11 | 0 | 1 | 05049 10393 43202 10125 20120 30020 40144 711011-1 8//// |
| 2023-08-05T05:00 | 7 | 320 | 2 | 13.3 | 12.5 | 1002 | 1014 | 10 | 0 | 1 | 05059 10393 73202 10133 20125 30021 40145 710011-1 8//// |
| 2023-08-05T06:00 | 7 | 320 | 2 | 14.7 | 13.3 | 1002 | 1015 | 10 | 0 | 1 | 05069 10393 73202 10147 20133 30023 40146 710011-1 8//// |
| 2023-08-05T07:00 | 8 | 360 | 2 | 17.9 | 13.5 | 1002 | 1014 | 05079 10393 83602 10179 20135 30022 40144 7//// 8//// | |||
| 2023-08-05T08:00 | 8 | 20 | 2 | 19.4 | 13.6 | 1002 | 1014 | 05089 10393 80202 10194 20136 30020 40141 7//// 8//// | |||
| 2023-08-05T09:00 | 8 | 10 | 2 | 19.6 | 13.5 | 1002 | 1014 | 05099 10393 80102 10196 20135 30020 40141 7//// 8//// | |||
| 2023-08-05T10:00 | 8 | 350 | 2 | 19.8 | 12.9 | 1002 | 1014 | 10 | 0 | 1 | 05109 10393 83502 10198 20129 30017 40138 710011-1 8//// |
| 2023-08-05T11:00 | 7 | 350 | 2 | 20.3 | 12.9 | 1001 | 1013 | 05119 10393 73502 10203 20129 30013 40134 7//// 8//// | |||
| 2023-08-05T12:00 | 8 | 340 | 1 | 20.2 | 12.1 | 1001 | 1013 | 10 | 0 | 1 | 05129 10393 83401 10202 20121 30009 40130 710011-1 8//// |
| 2023-08-05T13:00 | 8 | 320 | 2 | 20.6 | 12.8 | 1001 | 1013 | 05139 10393 83202 10206 20128 30006 40127 7//// 8//// | |||
| 2023-08-05T14:00 | 8 | 330 | 1 | 20.6 | 12.7 | 1000 | 1012 | 05149 10393 83301 10206 20127 30003 40124 7//// 8//// | |||
| 2023-08-05T15:00 | 8 | 350 | 1 | 20.6 | 12.9 | 1000 | 1012 | 05159 10393 83501 10206 20129 39998 40119 7//// 8//// | |||
| 2023-08-05T16:00 | 8 | 10 | 1 | 20.2 | 13.6 | 999 | 1011 | 05169 10393 80101 10202 20136 39993 40114 7//// 8//// | |||
| 2023-08-05T17:00 | 8 | 30 | 1 | 19.1 | 14.8 | 999 | 1011 | 05179 10393 80301 10191 20148 39989 40110 7//// 8//// | |||
| 2023-08-05T18:00 | 8 | 360 | 1 | 18.2 | 14.4 | 999 | 1011 | 05189 10393 83601 10182 20144 39989 40110 7//// 8//// | |||
| 2023-08-05T19:00 | 8 | 30 | 2 | 17.7 | 14.3 | 999 | 1011 | 05199 10393 80302 10177 20143 39987 40109 7//// 8//// | |||
| 2023-08-05T20:00 | 8 | 120 | 3 | 17.3 | 15.1 | 999 | 1011 | 15 | 7 | 1 | 05209 10393 81203 10173 20151 39988 40110 71571615 8//// |
| 2023-08-05T21:00 | 8 | 150 | 2 | 16.5 | 15.2 | 998 | 1010 | 12 | 3 | 1 | 05219 10393 81502 10165 20152 39982 40104 71231615 8//// |
| 2023-08-05T22:00 | 8 | 140 | 1 | 16.2 | 15.1 | 998 | 1010 | 15 | 1 | 1 | 05229 10393 81401 10162 20151 39977 40099 71511615 8//// |
| 2023-08-05T23:00 | 8 | 120 | 3 | 15.7 | 14.7 | 997 | 1009 | 16 | 1 | 1 | 05239 10393 81203 10157 20147 39971 40093 71611615 8//// |
| 2023-08-06T00:00 | 8 | 130 | 1 | 15.3 | 14.5 | 997 | 1009 | 16 | 1 | 1 | 06009 10393 81301 10153 20145 39966 40088 71611615 8//// |
| 2023-08-06T01:00 | 8 | 150 | 1 | 15.1 | 14.4 | 996 | 1008 | 16 | 1 | 1 | 06019 10393 81501 10151 20144 39963 40085 71611616 8//// |
| 2023-08-06T02:00 | 8 | 300 | 1 | 14.9 | 14.1 | 996 | 1008 | 16 | 2 | 1 | 06029 10393 83001 10149 20141 39957 40079 71621616 8//// |
| 2023-08-06T03:00 | 7 | 60 | 1 | 14.8 | 14.3 | 995 | 1007 | 16 | 2 | 1 | 06039 10393 70601 10148 20143 39952 40074 71621616 8//// |
| 2023-08-06T04:00 | 7 | 50 | 0 | 14.5 | 13.6 | 994 | 1006 | 16 | 1 | 1 | 06049 10393 70500 10145 20136 39943 40065 71611616 8//// |
| 2023-08-06T05:00 | 8 | 320 | 1 | 14.6 | 14.0 | 994 | 1006 | 16 | 1 | 1 | 06059 10393 83201 10146 20140 39935 40057 71611616 8//// |
| 2023-08-06T06:00 | 7 | 310 | 2 | 14.8 | 14.2 | 993 | 1005 | 16 | 1 | 1 | 06069 10393 73102 10148 20142 39930 40052 71611616 8//// |
| 2023-08-06T07:00 | 8 | 300 | 2 | 15.0 | 14.3 | 993 | 1005 | 16 | 1 | 1 | 06079 10393 83002 10150 20143 39928 40050 71611616 8//// |
| 2023-08-06T08:00 | 7 | 290 | 2 | 15.1 | 14.2 | 992 | 1005 | 16 | 1 | 1 | 06089 10393 72902 10151 20142 39925 40047 71611616 8//// |
| 2023-08-06T09:00 | 8 | 300 | 3 | 15.4 | 14.7 | 992 | 1004 | 16 | 1 | 1 | 06099 10393 83003 10154 20147 39920 40042 71611616 8//// |
| 2023-08-06T10:00 | 8 | 300 | 3 | 15.7 | 14.6 | 991 | 1004 | 16 | 1 | 1 | 06109 10393 83003 10157 20146 39914 40035 71611616 8//// |
| 2023-08-06T11:00 | 8 | 290 | 4 | 16.1 | 15.1 | 991 | 1003 | 16 | 1 | 1 | 06119 10393 82904 10161 20151 39909 40030 71611616 8//// |
| 2023-08-06T12:00 | 7 | 290 | 4 | 16.1 | 15.0 | 990 | 1002 | 16 | 1 | 1 | 06129 10393 72904 10161 20150 39902 40023 71611616 8//// |
| 2023-08-06T13:00 | 7 | 290 | 4 | 15.8 | 14.2 | 990 | 1002 | 16 | 1 | 1 | 06139 10393 72904 10158 20142 39901 40022 71611616 8//// |
| 2023-08-06T14:00 | 7 | 280 | 4 | 16.0 | 14.7 | 990 | 1002 | 16 | 1 | 1 | 06149 10393 72804 10160 20147 39902 40023 71611616 8//// |
| 2023-08-06T15:00 | 8 | 290 | 4 | 16.3 | 15.2 | 990 | 1002 | 16 | 1 | 1 | 06159 10393 82904 10163 20152 39901 40022 71611616 8//// |
| 2023-08-06T16:00 | 7 | 290 | 4 | 15.9 | 14.8 | 990 | 1002 | 15 | 7 | 1 | 06169 10393 72904 10159 20148 39902 40023 71571616 8//// |
| 2023-08-06T17:00 | 8 | 290 | 3 | 15.7 | 14.8 | 990 | 1002 | 16 | 1 | 1 | 06179 10393 82903 10157 20148 39901 40022 71611615 8//// |
| 2023-08-06T18:00 | 8 | 300 | 3 | 14.8 | 13.3 | 990 | 1002 | 15 | 1 | 1 | 06189 10393 83003 10148 20133 39900 40022 71511615 8//// |
| 2023-08-06T19:00 | 7 | 300 | 3 | 14.7 | 13.8 | 990 | 1003 | 16 | 1 | 1 | 06199 10393 73003 10147 20138 39904 40026 71611615 8//// |
| 2023-08-06T20:00 | 7 | 270 | 3 | 14.8 | 14.2 | 990 | 1003 | 12 | 3 | 1 | 06209 10393 72703 10148 20142 39904 40026 71231615 8//// |
| 2023-08-06T21:00 | 8 | 270 | 3 | 14.6 | 13.8 | 990 | 1003 | 10 | 0 | 1 | 06219 10393 82703 10146 20138 39904 40026 71001615 8//// |
| 2023-08-06T22:00 | 8 | 280 | 3 | 14.4 | 13.7 | 990 | 1002 | 06229 10393 82803 10144 20137 39902 40024 7//// 8//// | |||
| 2023-08-06T23:00 | 8 | 300 | 2 | 14.3 | 13.6 | 991 | 1003 | 12 | 3 | 1 | 06239 10393 83002 10143 20136 39908 40030 71231615 8//// |
| 2023-08-07T00:00 | 8 | 280 | 3 | 14.0 | 13.4 | 990 | 1003 | 10 | 0 | 1 | 07009 10393 82803 10140 20134 39905 40027 71001615 8//// |
| 2023-08-07T01:00 | 8 | 270 | 3 | 13.8 | 12.7 | 990 | 1002 | 07019 10393 82703 10138 20127 39903 40025 7//// 8//// | |||
| 2023-08-07T02:00 | 8 | 270 | 3 | 13.2 | 12.2 | 990 | 1002 | 07029 10393 82703 10132 20122 39902 40025 7//// 8//// | |||
| 2023-08-07T03:00 | 8 | 250 | 3 | 13.4 | 12.7 | 990 | 1003 | 07039 10393 82503 10134 20127 39905 40027 7//// 8//// | |||
| 2023-08-07T04:00 | 8 | 260 | 5 | 13.8 | 12.9 | 990 | 1003 | 07049 10393 82605 10138 20129 39905 40027 7//// 8//// | |||
| 2023-08-07T05:00 | 7 | 270 | 6 | 14.2 | 13.0 | 991 | 1003 | 07059 10393 72706 10142 20130 39908 40030 7//// 8//// | |||
| 2023-08-07T06:00 | 8 | 270 | 7 | 14.6 | 12.5 | 991 | 1003 | 07069 10393 82707 10146 20125 39911 40033 7//// 8//// | |||
| 2023-08-07T07:00 | 8 | 270 | 7 | 15.1 | 12.5 | 992 | 1004 | 07079 10393 82707 10151 20125 39915 40037 7//// 8//// | |||
| 2023-08-07T08:00 | 7 | 270 | 7 | 16.4 | 12.7 | 992 | 1004 | 07089 10393 72707 10164 20127 39920 40041 7//// 8//// | |||
| 2023-08-07T09:00 | 8 | 270 | 7 | 17.4 | 11.7 | 992 | 1005 | 07099 10393 82707 10174 20117 39925 40046 7//// 8//// | |||
| 2023-08-07T10:00 | 8 | 270 | 6 | 16.7 | 12.6 | 993 | 1005 | 12 | 3 | 1 | 07109 10393 82706 10167 20126 39927 40048 71231615 8//// |
| 2023-08-07T11:00 | 8 | 260 | 10 | 18.0 | 11.5 | 993 | 1005 | 12 | 3 | 1 | 07119 10393 82610 10180 20115 39927 40048 71231615 8//// |
| 2023-08-07T12:00 | 8 | 260 | 9 | 18.6 | 10.6 | 993 | 1005 | 10 | 0 | 1 | 07129 10393 82609 10186 20106 39928 40049 71001615 8//// |
| 2023-08-07T13:00 | 8 | 280 | 7 | 18.5 | 11.3 | 993 | 1005 | 12 | 2 | 1 | 07139 10393 82807 10185 20113 39928 40049 712215-1 8//// |
| 2023-08-07T14:00 | 8 | 270 | 7 | 17.3 | 12.7 | 994 | 1006 | 12 | 3 | 1 | 07149 10393 82707 10173 20127 39937 40058 712316-1 8//// |
| 2023-08-07T15:00 | 7 | 280 | 7 | 19.1 | 12.1 | 994 | 1006 | 10 | 0 | 1 | 07159 10393 72807 10191 20121 39942 40063 71001615 8//// |
| 2023-08-07T16:00 | 8 | 290 | 6 | 17.3 | 12.1 | 995 | 1007 | 12 | 3 | 1 | 07169 10393 82906 10173 20121 39947 40068 71231615 8//// |
| 2023-08-07T17:00 | 7 | 290 | 7 | 17.7 | 9.6 | 995 | 1007 | 12 | 3 | 1 | 07179 10393 72907 10177 20096 39951 40072 712316-1 8//// |
| 2023-08-07T18:00 | 7 | 270 | 8 | 17.2 | 8.5 | 996 | 1008 | 10 | 0 | 1 | 07189 10393 72708 10172 20085 39960 40082 71001615 8//// |
| 2023-08-07T19:00 | 7 | 270 | 9 | 16.4 | 7.8 | 997 | 1009 | 12 | 3 | 1 | 07199 10393 72709 10164 20078 39966 40088 71231615 8//// |
| 2023-08-07T20:00 | 7 | 270 | 9 | 15.7 | 8.1 | 997 | 1010 | 07209 10393 72709 10157 20081 39973 40095 7//// 8//// | |||
| 2023-08-07T21:00 | 7 | 270 | 9 | 15.2 | 8.3 | 998 | 1010 | 10 | 0 | 1 | 07219 10393 72709 10152 20083 39977 40100 71001615 8//// |
| 2023-08-07T22:00 | 7 | 270 | 8 | 14.8 | 8.3 | 998 | 1010 | 07229 10393 72708 10148 20083 39978 40101 7//// 8//// | |||
| 2023-08-07T23:00 | 8 | 260 | 7 | 14.3 | 8.8 | 998 | 1010 | 07239 10393 82607 10143 20088 39981 40104 7//// 8//// | |||
| 2023-08-08T00:00 | 5 | 260 | 8 | 13.3 | 8.6 | 998 | 1010 | 10 | 0 | 1 | 08009 10393 52608 10133 20086 39980 40104 71001615 8//// |
| 2023-08-08T01:00 | 4 | 260 | 8 | 13.1 | 8.3 | 998 | 1010 | 08019 10393 42608 10131 20083 39980 40104 7//// 8//// | |||
| 2023-08-08T02:00 | 0 | 250 | 7 | 12.3 | 8.0 | 998 | 1010 | 08029 10393 02507 10123 20080 39981 40105 7//// 8//// | |||
| 2023-08-08T03:00 | 1 | 240 | 6 | 11.5 | 7.8 | 998 | 1010 | 08039 10393 12406 10115 20078 39978 40102 7//// 8//// | |||
| 2023-08-08T04:00 | 0 | 240 | 6 | 11.5 | 7.8 | 998 | 1010 | 08049 10393 02406 10115 20078 39980 40104 7//// 8//// | |||
| 2023-08-08T05:00 | 8 | 240 | 6 | 12.2 | 8.2 | 998 | 1010 | 08059 10393 82406 10122 20082 39978 40102 7//// 8//// | |||
| 2023-08-08T06:00 | 7 | 240 | 7 | 13.4 | 8.7 | 998 | 1010 | 08069 10393 72407 10134 20087 39979 40103 7//// 8//// | |||
| 2023-08-08T07:00 | 8 | 250 | 8 | 14.7 | 9.4 | 998 | 1010 | 08079 10393 82508 10147 20094 39981 40104 7//// 8//// | |||
| 2023-08-08T08:00 | 8 | 240 | 8 | 15.4 | 9.7 | 998 | 1010 | 08089 10393 82408 10154 20097 39981 40104 7//// 8//// | |||
| 2023-08-08T09:00 | 8 | 240 | 6 | 16.2 | 9.9 | 998 | 1010 | 08099 10393 82406 10162 20099 39980 40102 7//// 8//// | |||
| 2023-08-08T10:00 | 8 | 250 | 7 | 17.3 | 9.6 | 998 | 1010 | 08109 10393 82507 10173 20096 39978 40100 7//// 8//// | |||
| 2023-08-08T11:00 | 5 | 250 | 6 | 18.0 | 9.8 | 997 | 1010 | 08119 10393 52506 10180 20098 39974 40095 7//// 8//// | |||
| 2023-08-08T12:00 | 8 | 240 | 9 | 18.1 | 8.0 | 997 | 1009 | 08129 10393 82409 10181 20080 39970 40091 7//// 8//// | |||
| 2023-08-08T13:00 | 8 | 250 | 6 | 13.9 | 10.0 | 998 | 1010 | 16 | 1 | 1 | 08139 10393 82506 10139 20100 39976 40099 716116-1 8//// |
| 2023-08-08T14:00 | 6 | 250 | 9 | 16.4 | 11.3 | 997 | 1010 | 12 | 3 | 1 | 08149 10393 62509 10164 20113 39974 40096 71231615 8//// |
| 2023-08-08T15:00 | 7 | 250 | 8 | 17.5 | 10.7 | 998 | 1010 | 10 | 0 | 1 | 08159 10393 72508 10175 20107 39976 40098 71001615 8//// |
| 2023-08-08T16:00 | 5 | 250 | 5 | 17.7 | 10.0 | 998 | 1010 | 08169 10393 52505 10177 20100 39976 40098 7//// 8//// | |||
| 2023-08-08T17:00 | 8 | 240 | 6 | 18.0 | 9.6 | 997 | 1010 | 08179 10393 82406 10180 20096 39974 40095 7//// 8//// | |||
| 2023-08-08T18:00 | 8 | 290 | 3 | 13.4 | 11.4 | 998 | 1011 | 12 | 3 | 1 | 08189 10393 82903 10134 20114 39983 40106 71231615 8//// |
| 2023-08-08T19:00 | 8 | 220 | 3 | 14.1 | 11.2 | 999 | 1011 | 15 | 7 | 1 | 08199 10393 82203 10141 20112 39987 40110 715716-1 8//// |
| 2023-08-08T20:00 | 8 | 230 | 3 | 13.1 | 11.2 | 999 | 1011 | 12 | 3 | 1 | 08209 10393 82303 10131 20112 39989 40113 71231615 8//// |
| 2023-08-08T21:00 | 8 | 240 | 3 | 12.9 | 11.2 | 999 | 1011 | 10 | 0 | 1 | 08219 10393 82403 10129 20112 39989 40113 71001615 8//// |
| 2023-08-08T22:00 | 8 | 230 | 4 | 12.8 | 11.3 | 999 | 1012 | 08229 10393 82304 10128 20113 39992 40116 7//// 8//// | |||
| 2023-08-08T23:00 | 8 | 240 | 5 | 13.2 | 11.2 | 999 | 1012 | 16 | 1 | 1 | 08239 10393 82405 10132 20112 39994 40118 71611615 8//// |
| 2023-08-09T00:00 | 8 | 230 | 3 | 12.5 | 10.8 | 1000 | 1012 | 12 | 3 | 1 | 09009 10393 82303 10125 20108 39995 40119 71231615 8//// |
| 2023-08-09T01:00 | 8 | 220 | 3 | 12.3 | 10.5 | 999 | 1012 | 09019 10393 82203 10123 20105 39993 40117 7//// 8//// | |||
| 2023-08-09T02:00 | 8 | 220 | 3 | 12.2 | 10.4 | 999 | 1012 | 09029 10393 82203 10122 20104 39994 40118 7//// 8//// | |||
| 2023-08-09T03:00 | 8 | 220 | 3 | 12.1 | 10.4 | 999 | 1012 | 12 | 3 | 1 | 09039 10393 82203 10121 20104 39991 40115 71231615 8//// |
| 2023-08-09T04:00 | 8 | 230 | 3 | 12.0 | 10.6 | 1000 | 1012 | 16 | 1 | 1 | 09049 10393 82303 10120 20106 39997 40121 716116-1 8//// |
| 2023-08-09T05:00 | 8 | 240 | 2 | 11.9 | 11.0 | 1000 | 1012 | 12 | 3 | 1 | 09059 10393 82402 10119 20110 39999 40123 71231615 8//// |
| 2023-08-09T06:00 | 8 | 240 | 2 | 12.4 | 11.2 | 1000 | 1013 | 10 | 0 | 1 | 09069 10393 82402 10124 20112 30003 40127 71001615 8//// |
| 2023-08-09T07:00 | 8 | 270 | 2 | 13.4 | 10.8 | 1001 | 1013 | 09079 10393 82702 10134 20108 30006 40130 7//// 8//// | |||
| 2023-08-09T08:00 | 7 | 290 | 4 | 15.2 | 9.6 | 1001 | 1013 | 09089 10393 72904 10152 20096 30010 40133 7//// 8//// | |||
| 2023-08-09T09:00 | 7 | 300 | 3 | 16.1 | 8.6 | 1002 | 1014 | 09099 10393 73003 10161 20086 30015 40138 7//// 8//// | |||
| 2023-08-09T10:00 | 7 | 270 | 4 | 17.2 | 7.8 | 1002 | 1014 | 09109 10393 72704 10172 20078 30018 40140 7//// 8//// | |||
| 2023-08-09T11:00 | 7 | 280 | 3 | 17.4 | 7.7 | 1002 | 1014 | 09119 10393 72803 10174 20077 30020 40142 7//// 8//// | |||
| 2023-08-09T12:00 | 7 | 280 | 3 | 18.8 | 8.7 | 1002 | 1014 | 09129 10393 72803 10188 20087 30021 40143 7//// 8//// | |||
| 2023-08-09T13:00 | 7 | 300 | 6 | 17.4 | 9.1 | 1003 | 1015 | 09139 10393 73006 10174 20091 30026 40148 7//// 8//// | |||
| 2023-08-09T14:00 | 6 | 280 | 3 | 18.4 | 8.8 | 1003 | 1015 | 12 | 3 | 1 | 09149 10393 62803 10184 20088 30031 40153 71231615 8//// |
| 2023-08-09T15:00 | 2 | 260 | 6 | 19.8 | 8.6 | 1003 | 1015 | 10 | 0 | 1 | 09159 10393 22606 10198 20086 30033 40154 71001615 8//// |
| 2023-08-09T16:00 | 8 | 290 | 5 | 17.2 | 8.5 | 1004 | 1016 | 09169 10393 82905 10172 20085 30040 40163 7//// 8//// | |||
| 2023-08-09T17:00 | 7 | 280 | 3 | 17.2 | 8.3 | 1004 | 1017 | 09179 10393 72803 10172 20083 30044 40167 7//// 8//// | |||
| 2023-08-09T18:00 | 7 | 280 | 4 | 16.7 | 8.9 | 1004 | 1017 | 10 | 0 | 1 | 09189 10393 72804 10167 20089 30045 40168 71001615 8//// |
| 2023-08-09T19:00 | 7 | 280 | 3 | 15.5 | 9.9 | 1005 | 1018 | 09199 10393 72803 10155 20099 30052 40175 7//// 8//// | |||
| 2023-08-09T20:00 | 8 | 280 | 3 | 15.3 | 10.2 | 1006 | 1018 | 09209 10393 82803 10153 20102 30056 40180 7//// 8//// | |||
| 2023-08-09T21:00 | 7 | 250 | 2 | 13.6 | 10.3 | 1006 | 1018 | 09219 10393 72502 10136 20103 30060 40184 7//// 8//// | |||
| 2023-08-09T22:00 | 4 | 240 | 2 | 12.7 | 10.0 | 1006 | 1019 | 09229 10393 42402 10127 20100 30064 40189 7//// 8//// | |||
| 2023-08-09T23:00 | 7 | 230 | 2 | 13.1 | 10.3 | 1007 | 1019 | 09239 10393 72302 10131 20103 30068 40193 7//// 8//// | |||
| 2023-08-10T00:00 | 8 | 250 | 2 | 13.3 | 10.3 | 1007 | 1020 | 10009 10393 82502 10133 20103 30070 40195 7//// 8//// | |||
| 2023-08-10T01:00 | 7 | 280 | 2 | 12.6 | 9.7 | 1007 | 1020 | 10019 10393 72802 10126 20097 30070 40195 7//// 8//// | |||
| 2023-08-10T02:00 | 1 | 290 | 1 | 12.1 | 9.6 | 1007 | 1020 | 10 | 0 | 1 | 10029 10393 12901 10121 20096 30071 40196 710011-1 8//// |
| 2023-08-10T03:00 | 1 | 260 | 1 | 11.2 | 9.5 | 1007 | 1020 | 10 | 0 | 1 | 10039 10393 12601 10112 20095 30073 40199 710011-1 8//// |
| 2023-08-10T04:00 | 0 | 250 | 1 | 11.0 | 9.4 | 1007 | 1020 | 10049 10393 02501 10110 20094 30074 40200 7//// 8//// | |||
| 2023-08-10T05:00 | 5 | 290 | 2 | 11.3 | 9.8 | 1008 | 1020 | 10059 10393 52902 10113 20098 30078 40204 7//// 8//// | |||
| 2023-08-10T06:00 | 4 | 300 | 1 | 14.0 | 11.4 | 1008 | 1020 | 10 | 0 | 1 | 10069 10393 43001 10140 20114 30081 40205 710011-1 8//// |
| 2023-08-10T07:00 | 5 | 350 | 2 | 17.0 | 9.4 | 1008 | 1021 | 10079 10393 53502 10170 20094 30085 40208 7//// 8//// | |||
| 2023-08-10T08:00 | 7 | 310 | 1 | 16.8 | 8.8 | 1009 | 1021 | 10089 10393 73101 10168 20088 30088 40211 7//// 8//// | |||
| 2023-08-10T09:00 | 8 | 300 | 2 | 17.0 | 8.5 | 1009 | 1021 | 10099 10393 83002 10170 20085 30091 40214 7//// 8//// | |||
| 2023-08-10T10:00 | 2 | 230 | 3 | 17.8 | 9.5 | 1009 | 1021 | 10109 10393 22303 10178 20095 30090 40213 7//// 8//// | |||
| 2023-08-10T11:00 | 0 | 270 | 3 | 18.8 | 8.5 | 1009 | 1021 | 10119 10393 02703 10188 20085 30089 40212 7//// 8//// | |||
| 2023-08-10T12:00 | 5 | 290 | 3 | 19.0 | 9.8 | 1008 | 1021 | 10129 10393 52903 10190 20098 30085 40207 7//// 8//// | |||
| 2023-08-10T13:00 | 3 | 300 | 4 | 20.1 | 8.9 | 1008 | 1020 | 10139 10393 33004 10201 20089 30083 40205 7//// 8//// | |||
| 2023-08-10T14:00 | 2 | 280 | 4 | 20.7 | 8.8 | 1008 | 1020 | 10149 10393 22804 10207 20088 30082 40204 7//// 8//// | |||
| 2023-08-10T15:00 | 1 | 300 | 4 | 21.4 | 9.2 | 1008 | 1020 | 10159 10393 13004 10214 20092 30081 40202 7//// 8//// | |||
| 2023-08-10T16:00 | 4 | 300 | 2 | 21.3 | 8.1 | 1008 | 1020 | 10169 10393 43002 10213 20081 30081 40202 7//// 8//// | |||
| 2023-08-10T17:00 | 0 | 310 | 2 | 20.5 | 8.4 | 1008 | 1020 | 10179 10393 03102 10205 20084 30083 40205 7//// 8//// | |||
| 2023-08-10T18:00 | 0 | 330 | 1 | 18.3 | 9.8 | 1008 | 1021 | 10189 10393 03301 10183 20098 30084 40207 7//// 8//// | |||
| 2023-08-10T19:00 | 2 | 40 | 2 | 15.7 | 9.8 | 1009 | 1021 | 10199 10393 20402 10157 20098 30087 40211 7//// 8//// | |||
| 2023-08-10T20:00 | 0 | 80 | 2 | 16.6 | 8.6 | 1009 | 1021 | 10209 10393 00802 10166 20086 30090 40214 7//// 8//// | |||
| 2023-08-10T21:00 | 0 | 90 | 3 | 16.0 | 8.9 | 1009 | 1022 | 10219 10393 00903 10160 20089 30091 40215 7//// 8//// | |||
| 2023-08-10T22:00 | 0 | 110 | 3 | 15.6 | 9.0 | 1009 | 1022 | 10229 10393 01103 10156 20090 30092 40216 7//// 8//// | |||
| 2023-08-10T23:00 | 0 | 120 | 3 | 14.6 | 8.9 | 1009 | 1022 | 10239 10393 01203 10146 20089 30092 40216 7//// 8//// | |||
| 2023-08-11T00:00 | 0 | 130 | 2 | 13.9 | 9.0 | 1009 | 1022 | 11009 10393 01302 10139 20090 30091 40216 7//// 8//// | |||
| 2023-08-11T01:00 | 6 | 160 | 2 | 12.9 | 9.4 | 1009 | 1022 | 11019 10393 61602 10129 20094 30092 40217 7//// 8//// | |||
| 2023-08-11T02:00 | 0 | 170 | 2 | 12.6 | 9.3 | 1009 | 1022 | 11029 10393 01702 10126 20093 30092 40217 7//// 8//// | |||
| 2023-08-11T03:00 | 3 | 180 | 2 | 12.7 | 9.2 | 1009 | 1022 | 11039 10393 31802 10127 20092 30092 40217 7//// 8//// | |||
| 2023-08-11T04:00 | 8 | 180 | 1 | 13.3 | 9.6 | 1009 | 1022 | 11049 10393 81801 10133 20096 30092 40217 7//// 8//// | |||
| 2023-08-11T05:00 | 8 | 180 | 1 | 14.3 | 9.4 | 1009 | 1022 | 11059 10393 81801 10143 20094 30093 40218 7//// 8//// | |||
| 2023-08-11T06:00 | 1 | 210 | 2 | 15.3 | 10.1 | 1010 | 1022 | 11069 10393 12102 10153 20101 30096 40220 7//// 8//// | |||
| 2023-08-11T07:00 | 7 | 220 | 1 | 18.0 | 10.6 | 1010 | 1022 | 11079 10393 72201 10180 20106 30099 40222 7//// 8//// | |||
| 2023-08-11T08:00 | 0 | 230 | 2 | 19.4 | 10.2 | 1010 | 1022 | 11089 10393 02302 10194 20102 30103 40225 7//// 8//// | |||
| 2023-08-11T09:00 | 0 | 280 | 2 | 20.9 | 10.1 | 1010 | 1022 | 11099 10393 02802 10209 20101 30103 40225 7//// 8//// | |||
| 2023-08-11T10:00 | 0 | 240 | 3 | 21.7 | 9.7 | 1010 | 1022 | 11109 10393 02403 10217 20097 30101 40222 7//// 8//// | |||
| 2023-08-11T11:00 | 0 | 280 | 2 | 22.2 | 9.8 | 1010 | 1022 | 11119 10393 02802 10222 20098 30102 40223 7//// 8//// | |||
| 2023-08-11T12:00 | 0 | 300 | 2 | 23.1 | 10.9 | 1010 | 1022 | 11129 10393 03002 10231 20109 30097 40218 7//// 8//// | |||
| 2023-08-11T13:00 | 0 | 270 | 1 | 24.0 | 10.8 | 1010 | 1022 | 11139 10393 02701 10240 20108 30095 40215 7//// 8//// | |||
| 2023-08-11T14:00 | 0 | 130 | 2 | 24.2 | 10.8 | 1010 | 1022 | 11149 10393 01302 10242 20108 30095 40215 7//// 8//// | |||
| 2023-08-11T15:00 | 0 | 360 | 1 | 25.0 | 11.5 | 1009 | 1021 | 11159 10393 03601 10250 20115 30094 40214 7//// 8//// | |||
| 2023-08-11T16:00 | 0 | 180 | 2 | 24.9 | 12.1 | 1009 | 1021 | 11169 10393 01802 10249 20121 30091 40211 7//// 8//// | |||
| 2023-08-11T17:00 | 0 | 220 | 2 | 24.7 | 12.9 | 1009 | 1021 | 11179 10393 02202 10247 20129 30089 40209 7//// 8//// | |||
| 2023-08-11T18:00 | 0 | 210 | 2 | 23.6 | 13.0 | 1009 | 1021 | 11189 10393 02102 10236 20130 30087 40207 7//// 8//// | |||
| 2023-08-11T19:00 | 0 | 170 | 2 | 20.2 | 13.2 | 1009 | 1021 | 11199 10393 01702 10202 20132 30090 40212 7//// 8//// | |||
| 2023-08-11T20:00 | 8 | 130 | 1 | 18.9 | 13.1 | 1009 | 1021 | 10 | 0 | 1 | 11209 10393 81301 10189 20131 30090 40212 710011-1 8//// |
| 2023-08-11T21:00 | 8 | 130 | 2 | 18.9 | 13.2 | 1009 | 1021 | 10 | 0 | 1 | 11219 10393 81302 10189 20132 30089 40211 710011-1 8//// |
| 2023-08-11T22:00 | 8 | 120 | 2 | 19.5 | 12.9 | 1009 | 1021 | 11229 10393 81202 10195 20129 30087 40209 7//// 8//// | |||
| 2023-08-11T23:00 | 8 | 110 | 3 | 19.0 | 12.7 | 1009 | 1021 | 11239 10393 81103 10190 20127 30088 40210 7//// 8//// | |||
| 2023-08-12T00:00 | 8 | 120 | 3 | 17.9 | 12.6 | 1008 | 1020 | 10 | 0 | 1 | 12009 10393 81203 10179 20126 30082 40205 710011-1 8//// |
| 2023-08-12T01:00 | 8 | 130 | 2 | 17.1 | 12.7 | 1008 | 1020 | 12019 10393 81302 10171 20127 30082 40205 7//// 8//// | |||
| 2023-08-12T02:00 | 8 | 140 | 3 | 17.5 | 12.4 | 1008 | 1020 | 12029 10393 81403 10175 20124 30078 40201 7//// 8//// | |||
| 2023-08-12T03:00 | 0 | 120 | 3 | 17.4 | 12.2 | 1007 | 1020 | 12039 10393 01203 10174 20122 30072 40195 7//// 8//// | |||
| 2023-08-12T04:00 | 8 | 110 | 4 | 17.5 | 11.9 | 1007 | 1019 | 12049 10393 81104 10175 20119 30069 40192 7//// 8//// | |||
| 2023-08-12T05:00 | 2 | 120 | 3 | 16.8 | 12.2 | 1007 | 1019 | 12059 10393 21203 10168 20122 30066 40189 7//// 8//// | |||
| 2023-08-12T06:00 | 8 | 140 | 3 | 18.5 | 13.2 | 1006 | 1019 | 12069 10393 81403 10185 20132 30065 40187 7//// 8//// | |||
| 2023-08-12T07:00 | 8 | 140 | 3 | 21.4 | 13.9 | 1006 | 1018 | 12079 10393 81403 10214 20139 30063 40184 7//// 8//// | |||
| 2023-08-12T08:00 | 8 | 140 | 2 | 22.6 | 14.3 | 1006 | 1018 | 12089 10393 81402 10226 20143 30061 40181 7//// 8//// | |||
| 2023-08-12T09:00 | 8 | 140 | 3 | 24.5 | 15.2 | 1006 | 1018 | 12099 10393 81403 10245 20152 30059 40179 7//// 8//// | |||
| 2023-08-12T10:00 | 8 | 140 | 4 | 25.5 | 16.4 | 1006 | 1018 | 12109 10393 81404 10255 20164 30056 40175 7//// 8//// | |||
| 2023-08-12T11:00 | 8 | 190 | 2 | 25.3 | 16.4 | 1006 | 1017 | 12119 10393 81902 10253 20164 30055 40174 7//// 8//// | |||
| 2023-08-12T12:00 | 8 | 160 | 1 | 25.6 | 17.8 | 1005 | 1017 | 12 | 3 | 1 | 12129 10393 81601 10256 20178 30050 40169 712316-1 8//// |
| 2023-08-12T13:00 | 8 | 250 | 2 | 25.7 | 18.6 | 1005 | 1017 | 12 | 3 | 1 | 12139 10393 82502 10257 20186 30048 40167 71231615 8//// |
| 2023-08-12T14:00 | 7 | 330 | 1 | 23.9 | 18.4 | 1004 | 1016 | 12 | 3 | 1 | 12149 10393 73301 10239 20184 30041 40160 71231615 8//// |
| 2023-08-12T15:00 | 5 | 130 | 3 | 27.6 | 18.3 | 1003 | 1015 | 10 | 0 | 1 | 12159 10393 51303 10276 20183 30034 40152 71001615 8//// |
| 2023-08-12T16:00 | 7 | 140 | 3 | 27.3 | 17.2 | 1003 | 1015 | 12169 10393 71403 10273 20172 30030 40148 7//// 8//// | |||
| 2023-08-12T17:00 | 8 | 190 | 2 | 27.2 | 17.3 | 1003 | 1014 | 12179 10393 81902 10272 20173 30027 40145 7//// 8//// | |||
| 2023-08-12T18:00 | 8 | 160 | 2 | 25.6 | 16.8 | 1002 | 1014 | 10 | 0 | 1 | 12189 10393 81602 10256 20168 30023 40142 71001615 8//// |
| 2023-08-12T19:00 | 8 | 210 | 3 | 21.8 | 19.0 | 1003 | 1015 | 12 | 3 | 1 | 12199 10393 82103 10218 20190 30029 40149 71231615 8//// |
| 2023-08-12T20:00 | 8 | 230 | 3 | 22.0 | 18.5 | 1003 | 1015 | 12209 10393 82303 10220 20185 30033 40153 7//// 8//// | |||
| 2023-08-12T21:00 | 8 | 220 | 3 | 20.8 | 18.1 | 1003 | 1015 | 10 | 0 | 1 | 12219 10393 82203 10208 20181 30032 40153 71001615 8//// |
| 2023-08-12T22:00 | 7 | 230 | 4 | 20.8 | 18.2 | 1003 | 1016 | 12229 10393 72304 10208 20182 30034 40155 7//// 8//// | |||
| 2023-08-12T23:00 | 2 | 260 | 4 | 20.7 | 18.0 | 1004 | 1016 | 12239 10393 22604 10207 20180 30036 40157 7//// 8//// | |||
| 2023-08-13T00:00 | 0 | 280 | 3 | 19.8 | 18.2 | 1004 | 1016 | 10 | 0 | 1 | 13009 10393 02803 10198 20182 30041 40162 71001615 8//// |
| 2023-08-13T01:00 | 1 | 270 | 3 | 19.5 | 18.2 | 1005 | 1017 | 13019 10393 12703 10195 20182 30046 40167 7//// 8//// | |||
| 2023-08-13T02:00 | 3 | 280 | 2 | 18.9 | 17.9 | 1005 | 1017 | 13029 10393 32802 10189 20179 30050 40172 7//// 8//// | |||
| 2023-08-13T03:00 | 7 | 280 | 2 | 17.9 | 17.3 | 1006 | 1018 | 13039 10393 72802 10179 20173 30055 40177 7//// 8//// | |||
| 2023-08-13T04:00 | 8 | 270 | 2 | 18.4 | 17.8 | 1006 | 1018 | 13049 10393 82702 10184 20178 30058 40180 7//// 8//// | |||
| 2023-08-13T05:00 | 8 | 280 | 2 | 18.3 | 17.6 | 1006 | 1018 | 13059 10393 82802 10183 20176 30060 40182 7//// 8//// | |||
| 2023-08-13T06:00 | 7 | 260 | 2 | 18.7 | 17.2 | 1006 | 1019 | 10 | 0 | 1 | 13069 10393 72602 10187 20172 30065 40187 710011-1 8//// |
| 2023-08-13T07:00 | 7 | 290 | 2 | 20.3 | 15.4 | 1007 | 1019 | 10 | 0 | 1 | 13079 10393 72902 10203 20154 30069 40190 710011-1 8//// |
| 2023-08-13T08:00 | 7 | 310 | 2 | 22.1 | 12.4 | 1007 | 1019 | 13089 10393 73102 10221 20124 30070 40191 7//// 8//// | |||
| 2023-08-13T09:00 | 8 | 250 | 2 | 22.4 | 11.9 | 1007 | 1019 | 10 | 0 | 1 | 13099 10393 82502 10224 20119 30070 40191 710011-1 8//// |
| 2023-08-13T10:00 | 6 | 280 | 1 | 24.4 | 14.3 | 1007 | 1019 | 13109 10393 62801 10244 20143 30067 40187 7//// 8//// | |||
| 2023-08-13T11:00 | 6 | 240 | 3 | 24.5 | 12.5 | 1007 | 1019 | 13119 10393 62403 10245 20125 30067 40187 7//// 8//// | |||
| 2023-08-13T12:00 | 8 | 220 | 2 | 25.4 | 13.1 | 1006 | 1018 | 10 | 0 | 1 | 13129 10393 82202 10254 20131 30065 40184 710011-1 8//// |
| 2023-08-13T13:00 | 8 | 360 | 1 | 25.2 | 12.4 | 1006 | 1018 | 13139 10393 83601 10252 20124 30061 40180 7//// 8//// | |||
| 2023-08-13T14:00 | 7 | 130 | 1 | 26.2 | 14.0 | 1006 | 1018 | 13149 10393 71301 10262 20140 30058 40177 7//// 8//// | |||
| 2023-08-13T15:00 | 8 | 60 | 1 | 25.5 | 12.4 | 1005 | 1017 | 13159 10393 80601 10255 20124 30054 40173 7//// 8//// | |||
| 2023-08-13T16:00 | 8 | 100 | 1 | 25.0 | 14.6 | 1005 | 1017 | 13169 10393 81001 10250 20146 30050 40169 7//// 8//// | |||
| 2023-08-13T17:00 | 8 | 90 | 2 | 24.5 | 15.3 | 1005 | 1017 | 13179 10393 80902 10245 20153 30047 40166 7//// 8//// | |||
| 2023-08-13T18:00 | 8 | 80 | 2 | 22.9 | 14.7 | 1005 | 1017 | 13189 10393 80802 10229 20147 30047 40167 7//// 8//// | |||
| 2023-08-13T19:00 | 8 | 80 | 2 | 23.0 | 14.7 | 1005 | 1017 | 13199 10393 80802 10230 20147 30050 40170 7//// 8//// | |||
| 2023-08-13T20:00 | 8 | 80 | 3 | 22.5 | 14.3 | 1005 | 1017 | 13209 10393 80803 10225 20143 30051 40171 7//// 8//// | |||
| 2023-08-13T21:00 | 8 | 100 | 3 | 22.2 | 13.8 | 1005 | 1017 | 13219 10393 81003 10222 20138 30049 40169 7//// 8//// | |||
| 2023-08-13T22:00 | 7 | 100 | 3 | 21.8 | 13.8 | 1005 | 1017 | 13229 10393 71003 10218 20138 30049 40170 7//// 8//// | |||
| 2023-08-13T23:00 | 6 | 110 | 3 | 21.6 | 13.6 | 1005 | 1017 | 13239 10393 61103 10216 20136 30048 40169 7//// 8//// | |||
| 2023-08-14T00:00 | 7 | 110 | 3 | 21.0 | 13.5 | 1005 | 1017 | 14009 10393 71103 10210 20135 30048 40169 7//// 8//// | |||
| 2023-08-14T01:00 | 6 | 120 | 2 | 18.3 | 15.5 | 1005 | 1017 | 12 | 3 | 1 | 14019 10393 61202 10183 20155 30047 40169 71231614 8//// |
| 2023-08-14T02:00 | 0 | 130 | 2 | 18.2 | 15.2 | 1005 | 1017 | 14029 10393 01302 10182 20152 30049 40171 7//// 8//// | |||
| 2023-08-14T03:00 | 0 | 280 | 2 | 17.3 | 14.8 | 1005 | 1017 | 10 | 0 | 1 | 14039 10393 02802 10173 20148 30048 40170 71001614 8//// |
| 2023-08-14T04:00 | 0 | 240 | 3 | 17.5 | 14.8 | 1005 | 1017 | 10 | 0 | 1 | 14049 10393 02403 10175 20148 30049 40171 710011-1 8//// |
| 2023-08-14T05:00 | 4 | 280 | 2 | 17.8 | 14.9 | 1005 | 1017 | 14059 10393 42802 10178 20149 30051 40173 7//// 8//// | |||
| 2023-08-14T06:00 | 3 | 180 | 1 | 19.6 | 16.2 | 1005 | 1017 | 10 | 0 | 1 | 14069 10393 31801 10196 20162 30051 40172 71001614 8//// |
| 2023-08-14T07:00 | 7 | 190 | 1 | 22.5 | 15.8 | 1005 | 1017 | 10 | 0 | 1 | 14079 10393 71901 10225 20158 30054 40174 710011-1 8//// |
| 2023-08-14T08:00 | 8 | 220 | 1 | 23.4 | 15.6 | 1005 | 1017 | 14089 10393 82201 10234 20156 30054 40174 7//// 8//// | |||
| 2023-08-14T09:00 | 1 | 210 | 1 | 24.8 | 15.1 | 1006 | 1018 | 10 | 0 | 1 | 14099 10393 12101 10248 20151 30057 40176 710011-1 8//// |
| 2023-08-14T10:00 | 7 | 200 | 1 | 26.0 | 14.8 | 1005 | 1017 | 14109 10393 72001 10260 20148 30054 40173 7//// 8//// | |||
| 2023-08-14T11:00 | 0 | 120 | 2 | 27.9 | 15.8 | 1005 | 1017 | 14119 10393 01202 10279 20158 30054 40172 7//// 8//// | |||
| 2023-08-14T12:00 | 0 | 150 | 3 | 28.7 | 14.3 | 1005 | 1017 | 10 | 0 | 1 | 14129 10393 01503 10287 20143 30049 40167 710011-1 8//// |
| 2023-08-14T13:00 | 4 | 140 | 4 | 29.5 | 14.2 | 1004 | 1016 | 14139 10393 41404 10295 20142 30043 40160 7//// 8//// | |||
| 2023-08-14T14:00 | 8 | 180 | 2 | 29.1 | 15.0 | 1004 | 1016 | 14149 10393 81802 10291 20150 30039 40157 7//// 8//// | |||
| 2023-08-14T15:00 | 8 | 110 | 2 | 28.5 | 15.5 | 1004 | 1015 | 14159 10393 81102 10285 20155 30035 40153 7//// 8//// | |||
| 2023-08-14T16:00 | 8 | 70 | 2 | 26.7 | 16.5 | 1004 | 1015 | 14169 10393 80702 10267 20165 30035 40153 7//// 8//// | |||
| 2023-08-14T17:00 | 8 | 70 | 2 | 26.3 | 16.9 | 1004 | 1016 | 16 | 1 | 1 | 14179 10393 80702 10263 20169 30037 40156 716116-1 8//// |
| 2023-08-14T18:00 | 7 | 110 | 5 | 19.0 | 18.1 | 1004 | 1016 | 16 | 1 | 1 | 14189 10393 71105 10190 20181 30043 40164 71611614 8//// |
| 2023-08-14T19:00 | 8 | 110 | 4 | 20.9 | 18.2 | 1004 | 1016 | 12 | 3 | 1 | 14199 10393 81104 10209 20182 30040 40161 71231615 8//// |
| 2023-08-14T20:00 | 2 | 110 | 4 | 20.1 | 18.5 | 1004 | 1016 | 14209 10393 21104 10201 20185 30037 40158 7//// 8//// | |||
| 2023-08-14T21:00 | 0 | 120 | 3 | 20.4 | 18.9 | 1004 | 1016 | 10 | 0 | 1 | 14219 10393 01203 10204 20189 30036 40157 71001615 8//// |
| 2023-08-14T22:00 | 0 | 110 | 4 | 21.3 | 18.9 | 1003 | 1015 | 14229 10393 01104 10213 20189 30031 40151 7//// 8//// | |||
| 2023-08-14T23:00 | 8 | 110 | 4 | 20.6 | 18.9 | 1003 | 1015 | 14239 10393 81104 10206 20189 30030 40151 7//// 8//// | |||
| 2023-08-15T00:00 | 8 | 250 | 6 | 20.3 | 19.0 | 1004 | 1016 | 10 | 0 | 1 | 15009 10393 82506 10203 20190 30044 40165 71001615 8//// |
| 2023-08-15T01:00 | 8 | 300 | 3 | 20.3 | 19.4 | 1004 | 1016 | 12 | 3 | 1 | 15019 10393 83003 10203 20194 30044 40165 71231614 8//// |
| 2023-08-15T02:00 | 8 | 320 | 2 | 19.8 | 19.0 | 1004 | 1016 | 16 | 1 | 1 | 15029 10393 83202 10198 20190 30035 40156 716116-1 8//// |
| 2023-08-15T03:00 | 4 | 140 | 2 | 19.1 | 18.5 | 1003 | 1015 | 12 | 3 | 1 | 15039 10393 41402 10191 20185 30029 40150 71231615 8//// |
| 2023-08-15T04:00 | 0 | 130 | 3 | 18.8 | 18.3 | 1003 | 1015 | 15049 10393 01303 10188 20183 30032 40153 7//// 8//// | |||
| 2023-08-15T05:00 | 2 | 140 | 2 | 19.0 | 18.5 | 1004 | 1016 | 10 | 0 | 1 | 15059 10393 21402 10190 20185 30038 40159 710011-1 8//// |
| 2023-08-15T06:00 | 0 | 130 | 2 | 20.2 | 19.0 | 1004 | 1016 | 10 | 0 | 1 | 15069 10393 01302 10202 20190 30041 40162 71001615 8//// |
| 2023-08-15T07:00 | 1 | 120 | 3 | 22.3 | 19.4 | 1004 | 1016 | 15079 10393 11203 10223 20194 30041 40161 7//// 8//// | |||
| 2023-08-15T08:00 | 0 | 130 | 3 | 24.8 | 20.0 | 1004 | 1016 | 15089 10393 01303 10248 20200 30040 40159 7//// 8//// | |||
| 2023-08-15T09:00 | 1 | 170 | 3 | 26.2 | 19.3 | 1004 | 1016 | 15099 10393 11703 10262 20193 30041 40159 7//// 8//// | |||
| 2023-08-15T10:00 | 0 | 170 | 2 | 28.1 | 19.4 | 1004 | 1016 | 15109 10393 01702 10281 20194 30040 40158 7//// 8//// | |||
| 2023-08-15T11:00 | 8 | 220 | 2 | 29.0 | 19.4 | 1004 | 1016 | 15119 10393 82202 10290 20194 30042 40159 7//// 8//// | |||
| 2023-08-15T12:00 | 8 | 200 | 1 | 28.9 | 19.7 | 1004 | 1015 | 15129 10393 82001 10289 20197 30037 40154 7//// 8//// | |||
| 2023-08-15T13:00 | 8 | 240 | 1 | 29.2 | 20.7 | 1004 | 1016 | 12 | 3 | 1 | 15139 10393 82401 10292 20207 30038 40155 712316-1 8//// |
| 2023-08-15T14:00 | 4 | 220 | 2 | 30.2 | 19.2 | 1004 | 1015 | 15149 10393 42202 10302 20192 30036 40153 7//// 8//// | |||
| 2023-08-15T15:00 | 7 | 160 | 1 | 30.6 | 19.3 | 1003 | 1015 | 10 | 0 | 1 | 15159 10393 71601 10306 20193 30034 40151 710016-1 8//// |
| 2023-08-15T16:00 | 8 | 360 | 1 | 28.3 | 20.8 | 1003 | 1015 | 15169 10393 83601 10283 20208 30034 40151 7//// 8//// | |||
| 2023-08-15T17:00 | 8 | 360 | 1 | 27.3 | 21.4 | 1004 | 1015 | 15179 10393 83601 10273 20214 30036 40154 7//// 8//// | |||
| 2023-08-15T18:00 | 8 | 280 | 2 | 26.5 | 21.8 | 1004 | 1016 | 10 | 0 | 1 | 15189 10393 82802 10265 20218 30043 40161 710016-1 8//// |
| 2023-08-15T19:00 | 7 | 310 | 3 | 21.2 | 18.9 | 1005 | 1017 | 16 | 1 | 1 | 15199 10393 73103 10212 20189 30048 40169 71611615 8//// |
| 2023-08-15T20:00 | 8 | 310 | 2 | 20.6 | 19.2 | 1005 | 1017 | 12 | 3 | 1 | 15209 10393 83102 10206 20192 30047 40168 71231615 8//// |
| 2023-08-15T21:00 | 8 | 360 | 2 | 20.5 | 19.7 | 1005 | 1017 | 12 | 3 | 1 | 15219 10393 83602 10205 20197 30046 40167 71231615 8//// |
| 2023-08-15T22:00 | 8 | 350 | 2 | 20.3 | 19.6 | 1005 | 1017 | 15229 10393 83502 10203 20196 30048 40169 7//// 8//// | |||
| 2023-08-15T23:00 | 8 | 300 | 2 | 20.5 | 19.8 | 1006 | 1018 | 15239 10393 83002 10205 20198 30055 40176 7//// 8//// | |||
| 2023-08-16T00:00 | 8 | 310 | 3 | 20.9 | 20.0 | 1006 | 1018 | 10 | 0 | 1 | 16009 10393 83103 10209 20200 30058 40179 71001615 8//// |
| 2023-08-16T01:00 | 8 | 310 | 2 | 20.6 | 19.7 | 1006 | 1018 | 16019 10393 83102 10206 20197 30060 40181 7//// 8//// | |||
| 2023-08-16T02:00 | 8 | 330 | 2 | 20.4 | 19.5 | 1006 | 1018 | 12 | 3 | 1 | 16029 10393 83302 10204 20195 30060 40181 71231615 8//// |
| 2023-08-16T03:00 | 8 | 320 | 2 | 20.3 | 19.6 | 1006 | 1018 | 12 | 3 | 1 | 16039 10393 83202 10203 20196 30062 40183 71231615 8//// |
| 2023-08-16T04:00 | 8 | 320 | 2 | 20.1 | 19.5 | 1007 | 1019 | 12 | 3 | 1 | 16049 10393 83202 10201 20195 30066 40187 712316-1 8//// |
| 2023-08-16T05:00 | 7 | 340 | 2 | 20.1 | 19.3 | 1007 | 1019 | 10 | 0 | 1 | 16059 10393 73402 10201 20193 30068 40189 710011-1 8//// |
| 2023-08-16T06:00 | 8 | 340 | 1 | 20.9 | 19.3 | 1007 | 1019 | 10 | 0 | 1 | 16069 10393 83401 10209 20193 30073 40194 71001615 8//// |
| 2023-08-16T07:00 | 8 | 330 | 2 | 21.5 | 19.3 | 1008 | 1020 | 16079 10393 83302 10215 20193 30078 40199 7//// 8//// | |||
| 2023-08-16T08:00 | 8 | 10 | 2 | 21.0 | 19.1 | 1008 | 1020 | 16089 10393 80102 10210 20191 30081 40202 7//// 8//// | |||
| 2023-08-16T09:00 | 8 | 350 | 2 | 21.7 | 19.1 | 1009 | 1021 | 16099 10393 83502 10217 20191 30086 40207 7//// 8//// | |||
| 2023-08-16T10:00 | 1 | 10 | 3 | 23.8 | 18.8 | 1009 | 1021 | 16109 10393 10103 10238 20188 30088 40208 7//// 8//// | |||
| 2023-08-16T11:00 | 7 | 40 | 2 | 24.4 | 18.4 | 1009 | 1021 | 16119 10393 70402 10244 20184 30086 40206 7//// 8//// | |||
| 2023-08-16T12:00 | 7 | 50 | 2 | 25.5 | 18.5 | 1008 | 1020 | 16129 10393 70502 10255 20185 30085 40204 7//// 8//// | |||
| 2023-08-16T13:00 | 4 | 360 | 3 | 26.2 | 17.9 | 1008 | 1020 | 16139 10393 43603 10262 20179 30083 40202 7//// 8//// | |||
| 2023-08-16T14:00 | 2 | 30 | 2 | 26.1 | 17.9 | 1008 | 1020 | 16149 10393 20302 10261 20179 30082 40201 7//// 8//// | |||
| 2023-08-16T15:00 | 4 | 50 | 2 | 27.0 | 17.8 | 1008 | 1020 | 16159 10393 40502 10270 20178 30079 40198 7//// 8//// | |||
| 2023-08-16T16:00 | 0 | 60 | 2 | 26.8 | 17.8 | 1008 | 1020 | 16169 10393 00602 10268 20178 30077 40196 7//// 8//// | |||
| 2023-08-16T17:00 | 0 | 60 | 2 | 26.2 | 17.6 | 1008 | 1020 | 16179 10393 00602 10262 20176 30076 40195 7//// 8//// | |||
| 2023-08-16T18:00 | 0 | 50 | 2 | 23.9 | 17.8 | 1008 | 1020 | 16189 10393 00502 10239 20178 30078 40198 7//// 8//// | |||
| 2023-08-16T19:00 | 0 | 60 | 3 | 23.3 | 17.5 | 1008 | 1020 | 16199 10393 00603 10233 20175 30082 40202 7//// 8//// | |||
| 2023-08-16T20:00 | 3 | 50 | 3 | 22.7 | 17.1 | 1008 | 1020 | 16209 10393 30503 10227 20171 30084 40205 7//// 8//// | |||
| 2023-08-16T21:00 | 1 | 60 | 3 | 21.7 | 17.0 | 1008 | 1020 | 16219 10393 10603 10217 20170 30081 40202 7//// 8//// | |||
| 2023-08-16T22:00 | 0 | 50 | 4 | 21.1 | 16.7 | 1008 | 1020 | 16229 10393 00504 10211 20167 30080 40201 7//// 8//// | |||
| 2023-08-16T23:00 | 0 | 60 | 3 | 20.3 | 16.3 | 1008 | 1020 | 16239 10393 00603 10203 20163 30081 40202 7//// 8//// | |||
| 2023-08-17T00:00 | 3 | 60 | 3 | 19.6 | 15.9 | 1008 | 1021 | 17009 10393 30603 10196 20159 30084 40206 7//// 8//// | |||
| 2023-08-17T01:00 | 0 | 80 | 4 | 19.0 | 15.9 | 1008 | 1020 | 17019 10393 00804 10190 20159 30081 40203 7//// 8//// | |||
| 2023-08-17T02:00 | 0 | 40 | 3 | 18.5 | 15.6 | 1008 | 1020 | 17029 10393 00403 10185 20156 30077 40199 7//// 8//// | |||
| 2023-08-17T03:00 | 8 | 50 | 3 | 18.5 | 15.3 | 1008 | 1020 | 17039 10393 80503 10185 20153 30076 40198 7//// 8//// | |||
| 2023-08-17T04:00 | 6 | 40 | 3 | 17.8 | 15.0 | 1007 | 1020 | 17049 10393 60403 10178 20150 30074 40197 7//// 8//// | |||
| 2023-08-17T05:00 | 7 | 60 | 3 | 17.8 | 15.2 | 1008 | 1020 | 17059 10393 70603 10178 20152 30077 40200 7//// 8//// | |||
| 2023-08-17T06:00 | 8 | 70 | 2 | 18.4 | 15.6 | 1008 | 1020 | 17069 10393 80702 10184 20156 30075 40197 7//// 8//// | |||
| 2023-08-17T07:00 | 8 | 120 | 1 | 19.6 | 16.1 | 1009 | 1021 | 17079 10393 81201 10196 20161 30086 40208 7//// 8//// | |||
| 2023-08-17T08:00 | 7 | 180 | 1 | 20.6 | 16.2 | 1008 | 1020 | 17089 10393 71801 10206 20162 30084 40205 7//// 8//// | |||
| 2023-08-17T09:00 | 6 | 80 | 3 | 21.8 | 17.0 | 1008 | 1020 | 17099 10393 60803 10218 20170 30082 40203 7//// 8//// | |||
| 2023-08-17T10:00 | 8 | 100 | 3 | 21.7 | 17.2 | 1008 | 1020 | 17109 10393 81003 10217 20172 30077 40198 7//// 8//// | |||
| 2023-08-17T11:00 | 7 | 110 | 4 | 23.8 | 18.0 | 1007 | 1019 | 17119 10393 71104 10238 20180 30074 40194 7//// 8//// | |||
| 2023-08-17T12:00 | 8 | 90 | 4 | 24.8 | 18.4 | 1007 | 1019 | 17129 10393 80904 10248 20184 30070 40189 7//// 8//// | |||
| 2023-08-17T13:00 | 7 | 110 | 3 | 25.8 | 18.1 | 1007 | 1019 | 17139 10393 71103 10258 20181 30067 40186 7//// 8//// | |||
| 2023-08-17T14:00 | 7 | 110 | 4 | 26.5 | 17.6 | 1006 | 1018 | 17149 10393 71104 10265 20176 30063 40182 7//// 8//// | |||
| 2023-08-17T15:00 | 1 | 90 | 3 | 26.7 | 18.5 | 1006 | 1018 | 17159 10393 10903 10267 20185 30059 40178 7//// 8//// | |||
| 2023-08-17T16:00 | 0 | 100 | 3 | 27.0 | 17.9 | 1006 | 1018 | 17169 10393 01003 10270 20179 30061 40179 7//// 8//// | |||
| 2023-08-17T17:00 | 6 | 90 | 3 | 25.7 | 18.2 | 1006 | 1018 | 17179 10393 60903 10257 20182 30059 40178 7//// 8//// | |||
| 2023-08-17T18:00 | 5 | 70 | 2 | 24.2 | 18.4 | 1006 | 1018 | 17189 10393 50702 10242 20184 30060 40180 7//// 8//// | |||
| 2023-08-17T19:00 | 7 | 80 | 3 | 24.0 | 18.6 | 1006 | 1018 | 17199 10393 70803 10240 20186 30062 40182 7//// 8//// | |||
| 2023-08-17T20:00 | 8 | 80 | 3 | 23.2 | 18.5 | 1006 | 1018 | 17209 10393 80803 10232 20185 30060 40180 7//// 8//// | |||
| 2023-08-17T21:00 | 8 | 70 | 3 | 22.7 | 18.5 | 1006 | 1018 | 17219 10393 80703 10227 20185 30056 40176 7//// 8//// | |||
| 2023-08-17T22:00 | 7 | 80 | 3 | 22.0 | 18.6 | 1007 | 1019 | 17229 10393 70803 10220 20186 30067 40187 7//// 8//// | |||
| 2023-08-17T23:00 | 8 | 80 | 3 | 21.4 | 18.6 | 1006 | 1018 | 17239 10393 80803 10214 20186 30064 40185 7//// 8//// | |||
| 2023-08-18T00:00 | 8 | 70 | 3 | 20.9 | 18.6 | 1006 | 1018 | 18009 10393 80703 10209 20186 30061 40182 7//// 8//// | |||
| 2023-08-18T01:00 | 8 | 80 | 3 | 20.4 | 18.5 | 1006 | 1018 | 18019 10393 80803 10204 20185 30060 40181 7//// 8//// | |||
| 2023-08-18T02:00 | 3 | 90 | 3 | 20.1 | 18.3 | 1006 | 1018 | 18029 10393 30903 10201 20183 30059 40180 7//// 8//// | |||
| 2023-08-18T03:00 | 0 | 80 | 3 | 19.5 | 18.4 | 1006 | 1018 | 18039 10393 00803 10195 20184 30055 40176 7//// 8//// | |||
| 2023-08-18T04:00 | 6 | 80 | 3 | 19.4 | 18.2 | 1006 | 1018 | 18049 10393 60803 10194 20182 30060 40181 7//// 8//// | |||
| 2023-08-18T05:00 | 8 | 80 | 3 | 19.6 | 18.1 | 1006 | 1018 | 18059 10393 80803 10196 20181 30062 40183 7//// 8//// | |||
| 2023-08-18T06:00 | 8 | 70 | 2 | 20.1 | 18.1 | 1006 | 1018 | 18069 10393 80702 10201 20181 30061 40182 7//// 8//// | |||
| 2023-08-18T07:00 | 8 | 90 | 2 | 21.0 | 18.2 | 1006 | 1018 | 18079 10393 80902 10210 20182 30062 40183 7//// 8//// | |||
| 2023-08-18T08:00 | 3 | 100 | 2 | 23.9 | 17.6 | 1006 | 1018 | 18089 10393 31002 10239 20176 30062 40182 7//// 8//// | |||
| 2023-08-18T09:00 | 7 | 100 | 2 | 25.5 | 17.1 | 1006 | 1018 | 18099 10393 71002 10255 20171 30063 40182 7//// 8//// | |||
| 2023-08-18T10:00 | 0 | 90 | 3 | 26.7 | 17.5 | 1006 | 1018 | 18109 10393 00903 10267 20175 30060 40179 7//// 8//// | |||
| 2023-08-18T11:00 | 8 | 100 | 3 | 27.4 | 18.1 | 1006 | 1017 | 18119 10393 81003 10274 20181 30056 40174 7//// 8//// | |||
| 2023-08-18T12:00 | 8 | 110 | 3 | 28.3 | 17.2 | 1005 | 1017 | 18129 10393 81103 10283 20172 30053 40171 7//// 8//// | |||
| 2023-08-18T13:00 | 7 | 90 | 3 | 28.6 | 16.8 | 1005 | 1017 | 18139 10393 70903 10286 20168 30053 40171 7//// 8//// | |||
| 2023-08-18T14:00 | 5 | 110 | 3 | 28.4 | 16.7 | 1005 | 1017 | 18149 10393 51103 10284 20167 30052 40170 7//// 8//// | |||
| 2023-08-18T15:00 | 0 | 130 | 2 | 29.4 | 16.3 | 1005 | 1016 | 18159 10393 01302 10294 20163 30047 40164 7//// 8//// | |||
| 2023-08-18T16:00 | 0 | 90 | 2 | 29.0 | 15.9 | 1005 | 1016 | 18169 10393 00902 10290 20159 30046 40164 7//// 8//// | |||
| 2023-08-18T17:00 | 2 | 50 | 2 | 27.5 | 18.0 | 1004 | 1016 | 18179 10393 20502 10275 20180 30045 40163 7//// 8//// | |||
| 2023-08-18T18:00 | 2 | 50 | 2 | 26.1 | 18.6 | 1005 | 1017 | 18189 10393 20502 10261 20186 30048 40167 7//// 8//// | |||
| 2023-08-18T19:00 | 8 | 50 | 2 | 25.4 | 20.0 | 1005 | 1017 | 16 | 1 | 1 | 18199 10393 80502 10254 20200 30054 40173 71611615 8//// |
| 2023-08-18T20:00 | 0 | 70 | 3 | 23.8 | 19.0 | 1005 | 1017 | 12 | 3 | 1 | 18209 10393 00703 10238 20190 30054 40174 71231615 8//// |
| 2023-08-18T21:00 | 0 | 80 | 3 | 23.5 | 19.9 | 1005 | 1017 | 10 | 0 | 1 | 18219 10393 00803 10235 20199 30053 40173 71001615 8//// |
| 2023-08-18T22:00 | 0 | 90 | 3 | 22.5 | 19.6 | 1005 | 1017 | 18229 10393 00903 10225 20196 30054 40174 7//// 8//// | |||
| 2023-08-18T23:00 | 0 | 80 | 3 | 22.1 | 19.2 | 1005 | 1017 | 18239 10393 00803 10221 20192 30051 40171 7//// 8//// | |||
| 2023-08-19T00:00 | 0 | 80 | 3 | 21.7 | 18.9 | 1005 | 1017 | 10 | 0 | 1 | 19009 10393 00803 10217 20189 30051 40171 71001615 8//// |
| 2023-08-19T01:00 | 0 | 80 | 4 | 20.9 | 18.7 | 1005 | 1017 | 19019 10393 00804 10209 20187 30050 40171 7//// 8//// | |||
| 2023-08-19T02:00 | 0 | 80 | 3 | 20.8 | 18.4 | 1005 | 1017 | 19029 10393 00803 10208 20184 30049 40170 7//// 8//// | |||
| 2023-08-19T03:00 | 0 | 70 | 4 | 20.2 | 18.4 | 1005 | 1017 | 19039 10393 00704 10202 20184 30048 40169 7//// 8//// | |||
| 2023-08-19T04:00 | 0 | 80 | 4 | 19.5 | 18.2 | 1005 | 1017 | 19049 10393 00804 10195 20182 30050 40171 7//// 8//// | |||
| 2023-08-19T05:00 | 2 | 100 | 3 | 19.7 | 18.2 | 1005 | 1018 | 19059 10393 21003 10197 20182 30054 40175 7//// 8//// | |||
| 2023-08-19T06:00 | 6 | 100 | 3 | 21.3 | 18.7 | 1006 | 1018 | 19069 10393 61003 10213 20187 30056 40177 7//// 8//// | |||
| 2023-08-19T07:00 | 7 | 100 | 2 | 22.9 | 18.6 | 1006 | 1018 | 19079 10393 71002 10229 20186 30058 40178 7//// 8//// | |||
| 2023-08-19T08:00 | 8 | 110 | 2 | 24.5 | 19.4 | 1006 | 1018 | 19089 10393 81102 10245 20194 30061 40180 7//// 8//// | |||
| 2023-08-19T09:00 | 0 | 110 | 2 | 26.6 | 19.9 | 1006 | 1018 | 19099 10393 01102 10266 20199 30061 40179 7//// 8//// | |||
| 2023-08-19T10:00 | 1 | 110 | 3 | 27.9 | 18.2 | 1006 | 1018 | 19109 10393 11103 10279 20182 30062 40180 7//// 8//// | |||
| 2023-08-19T11:00 | 2 | 140 | 3 | 29.1 | 18.8 | 1006 | 1018 | 19119 10393 21403 10291 20188 30060 40178 7//// 8//// | |||
| 2023-08-19T12:00 | 0 | 160 | 2 | 29.8 | 18.3 | 1006 | 1018 | 19129 10393 01602 10298 20183 30058 40175 7//// 8//// | |||
| 2023-08-19T13:00 | 0 | 160 | 1 | 30.2 | 16.9 | 1006 | 1018 | 19139 10393 01601 10302 20169 30058 40175 7//// 8//// | |||
| 2023-08-19T14:00 | 0 | 190 | 1 | 30.8 | 17.0 | 1006 | 1017 | 19149 10393 01901 10308 20170 30056 40173 7//// 8//// | |||
| 2023-08-19T15:00 | 0 | 60 | 1 | 30.8 | 18.2 | 1005 | 1017 | 19159 10393 00601 10308 20182 30052 40169 7//// 8//// | |||
| 2023-08-19T16:00 | 0 | 160 | 1 | 31.4 | 18.2 | 1005 | 1017 | 19169 10393 01601 10314 20182 30052 40169 7//// 8//// | |||
| 2023-08-19T17:00 | 0 | 80 | 2 | 28.9 | 17.0 | 1005 | 1017 | 19179 10393 00802 10289 20170 30054 40172 7//// 8//// | |||
| 2023-08-19T18:00 | 2 | 70 | 2 | 27.6 | 17.2 | 1006 | 1017 | 19189 10393 20702 10276 20172 30056 40174 7//// 8//// | |||
| 2023-08-19T19:00 | 0 | 80 | 3 | 27.1 | 17.8 | 1006 | 1018 | 19199 10393 00803 10271 20178 30059 40177 7//// 8//// | |||
| 2023-08-19T20:00 | 0 | 80 | 3 | 26.5 | 18.2 | 1006 | 1018 | 10 | 0 | 1 | 19209 10393 00803 10265 20182 30062 40181 710011-1 8//// |
| 2023-08-19T21:00 | 4 | 80 | 3 | 25.8 | 18.7 | 1006 | 1018 | 10 | 0 | 1 | 19219 10393 40803 10258 20187 30064 40183 710011-1 8//// |
| 2023-08-19T22:00 | 5 | 90 | 3 | 24.9 | 18.7 | 1006 | 1018 | 19229 10393 50903 10249 20187 30064 40183 7//// 8//// | |||
| 2023-08-19T23:00 | 8 | 110 | 3 | 25.2 | 18.0 | 1006 | 1018 | 19239 10393 81103 10252 20180 30064 40183 7//// 8//// | |||
| 2023-08-20T00:00 | 8 | 140 | 2 | 24.3 | 17.8 | 1006 | 1018 | 10 | 0 | 1 | 20009 10393 81402 10243 20178 30062 40182 710011-1 8//// |
| 2023-08-20T01:00 | 8 | 130 | 2 | 24.1 | 17.7 | 1006 | 1018 | 20019 10393 81302 10241 20177 30061 40181 7//// 8//// | |||
| 2023-08-20T02:00 | 8 | 210 | 2 | 23.0 | 18.0 | 1006 | 1018 | 20029 10393 82102 10230 20180 30065 40185 7//// 8//// | |||
| 2023-08-20T03:00 | 8 | 300 | 3 | 21.5 | 18.4 | 1007 | 1019 | 20039 10393 83003 10215 20184 30066 40187 7//// 8//// | |||
| 2023-08-20T04:00 | 3 | 310 | 3 | 21.3 | 18.9 | 1007 | 1019 | 10 | 0 | 1 | 20049 10393 33103 10213 20189 30070 40191 710011-1 8//// |
| 2023-08-20T05:00 | 2 | 320 | 3 | 21.8 | 19.5 | 1007 | 1020 | 20059 10393 23203 10218 20195 30074 40195 7//// 8//// | |||
| 2023-08-20T06:00 | 0 | 320 | 3 | 22.9 | 19.7 | 1008 | 1020 | 10 | 0 | 1 | 20069 10393 03203 10229 20197 30078 40198 710011-1 8//// |
| 2023-08-20T07:00 | 7 | 300 | 4 | 23.9 | 19.9 | 1008 | 1020 | 20079 10393 73004 10239 20199 30082 40202 7//// 8//// | |||
| 2023-08-20T08:00 | 8 | 310 | 4 | 25.0 | 20.2 | 1009 | 1020 | 20089 10393 83104 10250 20202 30086 40205 7//// 8//// | |||
| 2023-08-20T09:00 | 2 | 300 | 4 | 25.7 | 20.5 | 1009 | 1021 | 20099 10393 23004 10257 20205 30092 40211 7//// 8//// | |||
| 2023-08-20T10:00 | 8 | 280 | 3 | 26.0 | 20.4 | 1009 | 1021 | 20109 10393 82803 10260 20204 30093 40212 7//// 8//// | |||
| 2023-08-20T11:00 | 7 | 230 | 2 | 26.6 | 20.6 | 1009 | 1021 | 20119 10393 72302 10266 20206 30089 40208 7//// 8//// | |||
| 2023-08-20T12:00 | 2 | 280 | 3 | 27.7 | 19.5 | 1009 | 1021 | 20129 10393 22803 10277 20195 30091 40209 7//// 8//// | |||
| 2023-08-20T13:00 | 2 | 290 | 4 | 28.5 | 19.0 | 1009 | 1021 | 20139 10393 22904 10285 20190 30090 40208 7//// 8//// | |||
| 2023-08-20T14:00 | 3 | 290 | 3 | 29.0 | 17.9 | 1009 | 1020 | 20149 10393 32903 10290 20179 30087 40205 7//// 8//// | |||
| 2023-08-20T15:00 | 7 | 280 | 3 | 28.7 | 18.1 | 1009 | 1020 | 20159 10393 72803 10287 20181 30086 40204 7//// 8//// | |||
| 2023-08-20T16:00 | 5 | 300 | 4 | 28.6 | 16.7 | 1008 | 1020 | 20169 10393 53004 10286 20167 30084 40202 7//// 8//// | |||
| 2023-08-20T17:00 | 4 | 320 | 2 | 27.9 | 16.6 | 1008 | 1020 | 20179 10393 43202 10279 20166 30085 40203 7//// 8//// | |||
| 2023-08-20T18:00 | 0 | 310 | 2 | 24.3 | 16.5 | 1009 | 1021 | 20189 10393 03102 10243 20165 30087 40207 7//// 8//// | |||
| 2023-08-20T19:00 | 0 | 340 | 2 | 22.3 | 15.4 | 1009 | 1021 | 20199 10393 03402 10223 20154 30093 40214 7//// 8//// | |||
| 2023-08-20T20:00 | 5 | 360 | 2 | 21.5 | 15.8 | 1009 | 1022 | 20209 10393 53602 10215 20158 30094 40215 7//// 8//// | |||
| 2023-08-20T21:00 | 4 | 20 | 2 | 20.5 | 15.4 | 1010 | 1022 | 20219 10393 40202 10205 20154 30098 40220 7//// 8//// | |||
| 2023-08-20T22:00 | 5 | 60 | 2 | 22.0 | 18.7 | 1010 | 1022 | 20229 10393 50602 10220 20187 30099 40220 7//// 8//// | |||
| 2023-08-20T23:00 | 7 | 70 | 4 | 21.4 | 18.6 | 1010 | 1022 | 20239 10393 70704 10214 20186 30100 40221 7//// 8//// | |||
| 2023-08-21T00:00 | 7 | 80 | 3 | 20.8 | 17.8 | 1010 | 1022 | 21009 10393 70803 10208 20178 30101 40222 7//// 8//// | |||
| 2023-08-21T01:00 | 3 | 90 | 3 | 20.4 | 17.4 | 1010 | 1022 | 21019 10393 30903 10204 20174 30098 40220 7//// 8//// | |||
| 2023-08-21T02:00 | 7 | 80 | 3 | 20.5 | 17.4 | 1010 | 1022 | 21029 10393 70803 10205 20174 30098 40220 7//// 8//// | |||
| 2023-08-21T03:00 | 8 | 100 | 3 | 20.3 | 17.2 | 1010 | 1022 | 21039 10393 81003 10203 20172 30097 40219 7//// 8//// | |||
| 2023-08-21T04:00 | 8 | 120 | 3 | 19.8 | 17.3 | 1010 | 1022 | 21049 10393 81203 10198 20173 30096 40218 7//// 8//// | |||
| 2023-08-21T05:00 | 8 | 140 | 2 | 20.3 | 16.7 | 1010 | 1022 | 21059 10393 81402 10203 20167 30098 40220 7//// 8//// | |||
| 2023-08-21T06:00 | 8 | 170 | 1 | 20.4 | 17.2 | 1010 | 1022 | 21069 10393 81701 10204 20172 30102 40224 7//// 8//// | |||
| 2023-08-21T07:00 | 7 | 160 | 2 | 21.6 | 16.7 | 1010 | 1022 | 21079 10393 71602 10216 20167 30103 40224 7//// 8//// | |||
| 2023-08-21T08:00 | 5 | 220 | 3 | 23.4 | 17.3 | 1010 | 1022 | 21089 10393 52203 10234 20173 30105 40225 7//// 8//// | |||
| 2023-08-21T09:00 | 5 | 240 | 2 | 24.7 | 17.1 | 1011 | 1023 | 21099 10393 52402 10247 20171 30106 40226 7//// 8//// | |||
| 2023-08-21T10:00 | 8 | 280 | 3 | 24.6 | 17.3 | 1010 | 1022 | 21109 10393 82803 10246 20173 30105 40225 7//// 8//// | |||
| 2023-08-21T11:00 | 8 | 280 | 2 | 24.8 | 17.5 | 1010 | 1022 | 21119 10393 82802 10248 20175 30105 40225 7//// 8//// | |||
| 2023-08-21T12:00 | 7 | 310 | 3 | 26.2 | 15.1 | 1010 | 1022 | 21129 10393 73103 10262 20151 30104 40223 7//// 8//// | |||
| 2023-08-21T13:00 | 0 | 290 | 4 | 27.2 | 13.1 | 1010 | 1022 | 21139 10393 02904 10272 20131 30102 40221 7//// 8//// | |||
| 2023-08-21T14:00 | 0 | 330 | 2 | 26.2 | 13.7 | 1010 | 1022 | 21149 10393 03302 10262 20137 30101 40220 7//// 8//// | |||
| 2023-08-21T15:00 | 0 | 330 | 3 | 27.2 | 13.0 | 1010 | 1022 | 21159 10393 03303 10272 20130 30098 40217 7//// 8//// | |||
| 2023-08-21T16:00 | 0 | 310 | 3 | 26.9 | 13.7 | 1010 | 1022 | 21169 10393 03103 10269 20137 30096 40215 7//// 8//// | |||
| 2023-08-21T17:00 | 0 | 320 | 2 | 26.0 | 11.9 | 1009 | 1021 | 21179 10393 03202 10260 20119 30094 40214 7//// 8//// | |||
| 2023-08-21T18:00 | 0 | 330 | 1 | 22.5 | 13.3 | 1009 | 1021 | 21189 10393 03301 10225 20133 30093 40214 7//// 8//// | |||
| 2023-08-21T19:00 | 0 | 340 | 2 | 20.7 | 13.3 | 1010 | 1022 | 10 | 0 | 1 | 21199 10393 03402 10207 20133 30096 40218 710011-1 8//// |
| 2023-08-21T20:00 | 1 | 360 | 2 | 20.0 | 13.1 | 1010 | 1022 | 10 | 0 | 1 | 21209 10393 13602 10200 20131 30096 40218 710011-1 8//// |
| 2023-08-21T21:00 | 3 | 360 | 1 | 19.0 | 13.5 | 1010 | 1022 | 10 | 0 | 1 | 21219 10393 33601 10190 20135 30097 40219 710011-1 8//// |
| 2023-08-21T22:00 | 4 | 40 | 2 | 18.7 | 13.5 | 1010 | 1022 | 21229 10393 40402 10187 20135 30096 40218 7//// 8//// | |||
| 2023-08-21T23:00 | 1 | 60 | 3 | 19.3 | 13.9 | 1009 | 1022 | 21239 10393 10603 10193 20139 30094 40216 7//// 8//// | |||
| 2023-08-22T00:00 | 2 | 70 | 3 | 18.7 | 14.1 | 1009 | 1022 | 10 | 0 | 1 | 22009 10393 20703 10187 20141 30094 40216 710011-1 8//// |
| 2023-08-22T01:00 | 4 | 80 | 3 | 18.5 | 14.2 | 1009 | 1021 | 22019 10393 40803 10185 20142 30090 40212 7//// 8//// | |||
| 2023-08-22T02:00 | 6 | 80 | 3 | 18.1 | 14.1 | 1009 | 1021 | 22029 10393 60803 10181 20141 30089 40212 7//// 8//// | |||
| 2023-08-22T03:00 | 4 | 80 | 3 | 17.8 | 14.2 | 1008 | 1021 | 22039 10393 40803 10178 20142 30085 40208 7//// 8//// | |||
| 2023-08-22T04:00 | 3 | 90 | 3 | 17.6 | 14.0 | 1008 | 1021 | 22049 10393 30903 10176 20140 30084 40207 7//// 8//// | |||
| 2023-08-22T05:00 | 5 | 90 | 4 | 17.7 | 13.7 | 1008 | 1020 | 22059 10393 50904 10177 20137 30081 40204 7//// 8//// | |||
| 2023-08-22T06:00 | 6 | 100 | 3 | 18.6 | 13.6 | 1008 | 1020 | 22069 10393 61003 10186 20136 30078 40200 7//// 8//// | |||
| 2023-08-22T07:00 | 7 | 90 | 3 | 19.7 | 14.1 | 1008 | 1020 | 22079 10393 70903 10197 20141 30076 40198 7//// 8//// | |||
| 2023-08-22T08:00 | 7 | 90 | 3 | 21.2 | 14.5 | 1007 | 1019 | 22089 10393 70903 10212 20145 30073 40194 7//// 8//// | |||
| 2023-08-22T09:00 | 7 | 70 | 3 | 22.2 | 15.1 | 1007 | 1019 | 12 | 3 | 1 | 22099 10393 70703 10222 20151 30070 40191 712316-1 8//// |
| 2023-08-22T10:00 | 7 | 60 | 3 | 23.8 | 15.2 | 1007 | 1019 | 22109 10393 70603 10238 20152 30066 40186 7//// 8//// | |||
| 2023-08-22T11:00 | 8 | 90 | 3 | 24.6 | 14.8 | 1006 | 1018 | 22119 10393 80903 10246 20148 30061 40181 7//// 8//// | |||
| 2023-08-22T12:00 | 8 | 40 | 2 | 25.4 | 14.8 | 1006 | 1018 | 10 | 0 | 1 | 22129 10393 80402 10254 20148 30062 40181 710016-1 8//// |
| 2023-08-22T13:00 | 8 | 360 | 3 | 25.5 | 15.1 | 1006 | 1018 | 22139 10393 83603 10255 20151 30062 40181 7//// 8//// | |||
| 2023-08-22T14:00 | 8 | 20 | 2 | 25.0 | 14.3 | 1006 | 1018 | 22149 10393 80202 10250 20143 30061 40180 7//// 8//// | |||
| 2023-08-22T15:00 | 8 | 20 | 3 | 24.9 | 15.1 | 1006 | 1018 | 22159 10393 80203 10249 20151 30064 40183 7//// 8//// | |||
| 2023-08-22T16:00 | 8 | 360 | 2 | 23.4 | 14.3 | 1007 | 1019 | 22169 10393 83602 10234 20143 30066 40186 7//// 8//// | |||
| 2023-08-22T17:00 | 8 | 350 | 2 | 22.8 | 14.6 | 1007 | 1019 | 22179 10393 83502 10228 20146 30068 40188 7//// 8//// | |||
| 2023-08-22T18:00 | 8 | 350 | 1 | 21.0 | 15.1 | 1007 | 1019 | 22189 10393 83501 10210 20151 30069 40190 7//// 8//// | |||
| 2023-08-22T19:00 | 8 | 40 | 1 | 19.6 | 15.3 | 1007 | 1019 | 10 | 0 | 1 | 22199 10393 80401 10196 20153 30072 40194 710011-1 8//// |
| 2023-08-22T20:00 | 4 | 50 | 2 | 18.8 | 14.5 | 1007 | 1019 | 22209 10393 40502 10188 20145 30072 40194 7//// 8//// | |||
| 2023-08-22T21:00 | 0 | 110 | 2 | 17.3 | 14.3 | 1007 | 1020 | 10 | 0 | 1 | 22219 10393 01102 10173 20143 30074 40197 710011-1 8//// |
| 2023-08-22T22:00 | 0 | 100 | 2 | 16.7 | 14.2 | 1008 | 1020 | 22229 10393 01002 10167 20142 30075 40198 7//// 8//// | |||
| 2023-08-22T23:00 | 0 | 110 | 1 | 16.6 | 13.4 | 1007 | 1020 | 22239 10393 01101 10166 20134 30073 40196 7//// 8//// | |||
| 2023-08-23T00:00 | 0 | 120 | 2 | 15.5 | 13.4 | 1007 | 1019 | 10 | 0 | 1 | 23009 10393 01202 10155 20134 30070 40194 710011-1 8//// |
| 2023-08-23T01:00 | 0 | 140 | 2 | 15.1 | 13.6 | 1007 | 1019 | 23019 10393 01402 10151 20136 30070 40194 7//// 8//// | |||
| 2023-08-23T02:00 | 0 | 170 | 2 | 16.0 | 13.9 | 1007 | 1020 | 23029 10393 01702 10160 20139 30072 40195 7//// 8//// | |||
| 2023-08-23T03:00 | 0 | 180 | 2 | 15.7 | 14.0 | 1007 | 1019 | 23039 10393 01802 10157 20140 30069 40192 7//// 8//// | |||
| 2023-08-23T04:00 | 0 | 220 | 2 | 15.6 | 14.3 | 1007 | 1019 | 23049 10393 02202 10156 20143 30070 40193 7//// 8//// | |||
| 2023-08-23T05:00 | 1 | 220 | 2 | 15.5 | 14.3 | 1007 | 1020 | 23059 10393 12202 10155 20143 30071 40195 7//// 8//// | |||
| 2023-08-23T06:00 | 0 | 190 | 1 | 17.5 | 15.0 | 1007 | 1020 | 23069 10393 01901 10175 20150 30072 40195 7//// 8//// | |||
| 2023-08-23T07:00 | 0 | 150 | 2 | 19.7 | 14.8 | 1007 | 1019 | 23079 10393 01502 10197 20148 30072 40194 7//// 8//// | |||
| 2023-08-23T08:00 | 3 | 220 | 1 | 22.5 | 14.9 | 1007 | 1019 | 23089 10393 32201 10225 20149 30073 40194 7//// 8//// | |||
| 2023-08-23T09:00 | 1 | 230 | 3 | 23.7 | 13.7 | 1008 | 1020 | 23099 10393 12303 10237 20137 30075 40195 7//// 8//// | |||
| 2023-08-23T10:00 | 2 | 220 | 3 | 25.1 | 14.7 | 1007 | 1019 | 23109 10393 22203 10251 20147 30074 40194 7//// 8//// | |||
| 2023-08-23T11:00 | 8 | 270 | 4 | 24.7 | 13.1 | 1007 | 1019 | 23119 10393 82704 10247 20131 30073 40193 7//// 8//// | |||
| 2023-08-23T12:00 | 7 | 280 | 3 | 25.6 | 14.1 | 1007 | 1019 | 23129 10393 72803 10256 20141 30069 40188 7//// 8//// | |||
| 2023-08-23T13:00 | 4 | 310 | 3 | 26.0 | 13.3 | 1007 | 1018 | 23139 10393 43103 10260 20133 30066 40185 7//// 8//// | |||
| 2023-08-23T14:00 | 3 | 290 | 3 | 25.8 | 12.6 | 1006 | 1018 | 23149 10393 32903 10258 20126 30062 40181 7//// 8//// | |||
| 2023-08-23T15:00 | 0 | 300 | 3 | 25.5 | 12.6 | 1006 | 1018 | 23159 10393 03003 10255 20126 30059 40178 7//// 8//// | |||
| 2023-08-23T16:00 | 0 | 300 | 4 | 26.0 | 12.9 | 1006 | 1018 | 23169 10393 03004 10260 20129 30059 40178 7//// 8//// | |||
| 2023-08-23T17:00 | 8 | 310 | 3 | 25.3 | 13.1 | 1006 | 1018 | 23179 10393 83103 10253 20131 30060 40179 7//// 8//// | |||
| 2023-08-23T18:00 | 0 | 320 | 1 | 21.8 | 12.9 | 1006 | 1018 | 23189 10393 03201 10218 20129 30060 40181 7//// 8//// | |||
| 2023-08-23T19:00 | 0 | 320 | 2 | 19.9 | 13.0 | 1006 | 1019 | 10 | 0 | 1 | 23199 10393 03202 10199 20130 30065 40187 710011-1 8//// |
| 2023-08-23T20:00 | 3 | 340 | 2 | 19.0 | 13.3 | 1007 | 1019 | 23209 10393 33402 10190 20133 30067 40189 7//// 8//// | |||
| 2023-08-23T21:00 | 0 | 290 | 2 | 18.3 | 13.4 | 1007 | 1019 | 10 | 0 | 1 | 23219 10393 02902 10183 20134 30068 40190 710011-1 8//// |
| 2023-08-23T22:00 | 8 | 300 | 2 | 18.0 | 13.4 | 1007 | 1019 | 23229 10393 83002 10180 20134 30069 40191 7//// 8//// | |||
| 2023-08-23T23:00 | 8 | 290 | 2 | 17.2 | 13.5 | 1007 | 1019 | 23239 10393 82902 10172 20135 30069 40192 7//// 8//// | |||
| 2023-08-24T00:00 | 7 | 290 | 2 | 16.8 | 13.8 | 1007 | 1019 | 10 | 0 | 1 | 24009 10393 72902 10168 20138 30067 40190 710011-1 8//// |
| 2023-08-24T01:00 | 1 | 290 | 2 | 16.3 | 14.0 | 1007 | 1019 | 24019 10393 12902 10163 20140 30067 40190 7//// 8//// | |||
| 2023-08-24T02:00 | 2 | 310 | 2 | 16.9 | 14.1 | 1007 | 1019 | 24029 10393 23102 10169 20141 30067 40190 7//// 8//// | |||
| 2023-08-24T03:00 | 6 | 270 | 1 | 15.1 | 13.4 | 1007 | 1019 | 24039 10393 62701 10151 20134 30066 40190 7//// 8//// | |||
| 2023-08-24T04:00 | 8 | 230 | 2 | 15.8 | 13.6 | 1006 | 1019 | 24049 10393 82302 10158 20136 30064 40187 7//// 8//// | |||
| 2023-08-24T05:00 | 8 | 190 | 2 | 16.5 | 13.7 | 1006 | 1019 | 24059 10393 81902 10165 20137 30063 40186 7//// 8//// | |||
| 2023-08-24T06:00 | 7 | 190 | 1 | 17.5 | 14.0 | 1006 | 1019 | 24069 10393 71901 10175 20140 30064 40187 7//// 8//// | |||
| 2023-08-24T07:00 | 7 | 240 | 2 | 20.0 | 13.3 | 1006 | 1019 | 24079 10393 72402 10200 20133 30064 40186 7//// 8//// | |||
| 2023-08-24T08:00 | 4 | 220 | 2 | 22.7 | 14.3 | 1007 | 1019 | 24089 10393 42202 10227 20143 30067 40187 7//// 8//// | |||
| 2023-08-24T09:00 | 6 | 240 | 2 | 23.9 | 13.7 | 1006 | 1018 | 10 | 0 | 1 | 24099 10393 62402 10239 20137 30063 40183 710011-1 8//// |
| 2023-08-24T10:00 | 7 | 250 | 1 | 24.3 | 12.8 | 1006 | 1018 | 24109 10393 72501 10243 20128 30057 40177 7//// 8//// | |||
| 2023-08-24T11:00 | 2 | 240 | 3 | 25.0 | 13.1 | 1006 | 1017 | 24119 10393 22403 10250 20131 30055 40174 7//// 8//// | |||
| 2023-08-24T12:00 | 0 | 230 | 2 | 25.8 | 13.6 | 1005 | 1017 | 10 | 0 | 1 | 24129 10393 02302 10258 20136 30048 40167 710011-1 8//// |
| 2023-08-24T13:00 | 5 | 190 | 2 | 26.6 | 13.4 | 1004 | 1016 | 24139 10393 51902 10266 20134 30041 40160 7//// 8//// | |||
| 2023-08-24T14:00 | 4 | 110 | 2 | 26.8 | 13.5 | 1003 | 1015 | 24149 10393 41102 10268 20135 30030 40148 7//// 8//// | |||
| 2023-08-24T15:00 | 8 | 170 | 1 | 27.1 | 13.4 | 1002 | 1014 | 24159 10393 81701 10271 20134 30024 40142 7//// 8//// | |||
| 2023-08-24T16:00 | 7 | 140 | 2 | 27.0 | 13.7 | 1003 | 1014 | 24169 10393 71402 10270 20137 30026 40144 7//// 8//// | |||
| 2023-08-24T17:00 | 8 | 140 | 1 | 25.7 | 15.2 | 1002 | 1014 | 24179 10393 81401 10257 20152 30020 40139 7//// 8//// | |||
| 2023-08-24T18:00 | 8 | 110 | 2 | 23.8 | 15.2 | 1002 | 1014 | 24189 10393 81102 10238 20152 30016 40135 7//// 8//// | |||
| 2023-08-24T19:00 | 8 | 100 | 3 | 23.6 | 14.2 | 1002 | 1013 | 24199 10393 81003 10236 20142 30015 40134 7//// 8//// | |||
| 2023-08-24T20:00 | 8 | 100 | 3 | 22.9 | 13.9 | 1001 | 1013 | 24209 10393 81003 10229 20139 30006 40126 7//// 8//// | |||
| 2023-08-24T21:00 | 7 | 90 | 3 | 21.6 | 14.1 | 1000 | 1012 | 24219 10393 70903 10216 20141 39998 40118 7//// 8//// | |||
| 2023-08-24T22:00 | 8 | 110 | 3 | 22.2 | 13.4 | 999 | 1011 | 24229 10393 81103 10222 20134 39992 40112 7//// 8//// | |||
| 2023-08-24T23:00 | 8 | 110 | 4 | 21.9 | 13.5 | 999 | 1011 | 16 | 1 | 1 | 24239 10393 81104 10219 20135 39989 40109 71611615 8//// |
| 2023-08-25T00:00 | 8 | 130 | 3 | 21.2 | 14.6 | 999 | 1011 | 12 | 3 | 1 | 25009 10393 81303 10212 20146 39990 40110 71231615 8//// |
| 2023-08-25T01:00 | 8 | 120 | 3 | 20.3 | 15.9 | 999 | 1011 | 12 | 3 | 1 | 25019 10393 81203 10203 20159 39986 40106 71231615 8//// |
| 2023-08-25T02:00 | 8 | 90 | 4 | 20.2 | 15.9 | 998 | 1010 | 12 | 3 | 1 | 25029 10393 80904 10202 20159 39978 40098 71231615 8//// |
| 2023-08-25T03:00 | 8 | 90 | 4 | 19.8 | 16.1 | 997 | 1009 | 10 | 0 | 1 | 25039 10393 80904 10198 20161 39971 40091 71001615 8//// |
| 2023-08-25T04:00 | 5 | 100 | 4 | 19.1 | 16.1 | 997 | 1009 | 25049 10393 51004 10191 20161 39966 40087 7//// 8//// | |||
| 2023-08-25T05:00 | 1 | 130 | 3 | 18.9 | 15.9 | 996 | 1008 | 25059 10393 11303 10189 20159 39964 40085 7//// 8//// | |||
| 2023-08-25T06:00 | 8 | 180 | 1 | 20.5 | 16.5 | 996 | 1008 | 10 | 0 | 1 | 25069 10393 81801 10205 20165 39964 40084 71001615 8//// |
| 2023-08-25T07:00 | 0 | 250 | 3 | 22.1 | 16.1 | 996 | 1008 | 25079 10393 02503 10221 20161 39964 40083 7//// 8//// | |||
| 2023-08-25T08:00 | 0 | 250 | 2 | 24.4 | 16.5 | 996 | 1008 | 25089 10393 02502 10244 20165 39964 40082 7//// 8//// | |||
| 2023-08-25T09:00 | 0 | 240 | 2 | 25.8 | 16.6 | 997 | 1009 | 25099 10393 02402 10258 20166 39970 40088 7//// 8//// | |||
| 2023-08-25T10:00 | 7 | 260 | 1 | 27.0 | 17.3 | 997 | 1009 | 25109 10393 72601 10270 20173 39973 40090 7//// 8//// | |||
| 2023-08-25T11:00 | 8 | 270 | 1 | 27.4 | 17.2 | 998 | 1009 | 25119 10393 82701 10274 20172 39975 40092 7//// 8//// | |||
| 2023-08-25T12:00 | 8 | 250 | 3 | 28.3 | 17.2 | 997 | 1009 | 25129 10393 82503 10283 20172 39972 40089 7//// 8//// | |||
| 2023-08-25T13:00 | 8 | 220 | 5 | 27.3 | 17.2 | 998 | 1009 | 25139 10393 82205 10273 20172 39977 40094 7//// 8//// | |||
| 2023-08-25T14:00 | 8 | 250 | 4 | 26.1 | 17.5 | 998 | 1010 | 12 | 3 | 1 | 25149 10393 82504 10261 20175 39978 40096 71231615 8//// |
| 2023-08-25T15:00 | 8 | 320 | 1 | 24.9 | 18.4 | 997 | 1009 | 12 | 3 | 1 | 25159 10393 83201 10249 20184 39969 40087 71231615 8//// |
| 2023-08-25T16:00 | 8 | 120 | 1 | 25.2 | 18.3 | 997 | 1008 | 25169 10393 81201 10252 20183 39966 40084 7//// 8//// | |||
| 2023-08-25T17:00 | 8 | 180 | 1 | 24.9 | 19.0 | 997 | 1008 | 25179 10393 81801 10249 20190 39967 40085 7//// 8//// | |||
| 2023-08-25T18:00 | 8 | 160 | 1 | 23.9 | 19.2 | 996 | 1008 | 10 | 0 | 1 | 25189 10393 81601 10239 20192 39963 40081 71001615 8//// |
| 2023-08-25T19:00 | 8 | 210 | 2 | 23.7 | 19.3 | 997 | 1009 | 10 | 0 | 1 | 25199 10393 82102 10237 20193 39970 40089 710011-1 8//// |
| 2023-08-25T20:00 | 7 | 220 | 6 | 22.3 | 19.4 | 997 | 1009 | 16 | 1 | 1 | 25209 10393 72206 10223 20194 39971 40090 716116-1 8//// |
| 2023-08-25T21:00 | 8 | 210 | 4 | 19.7 | 17.7 | 997 | 1009 | 12 | 3 | 1 | 25219 10393 82104 10197 20177 39967 40087 71231615 8//// |
| 2023-08-25T22:00 | 0 | 220 | 4 | 19.1 | 16.3 | 997 | 1009 | 25229 10393 02204 10191 20163 39967 40088 7//// 8//// | |||
| 2023-08-25T23:00 | 7 | 210 | 2 | 18.3 | 16.2 | 997 | 1009 | 25239 10393 72102 10183 20162 39969 40090 7//// 8//// | |||
| 2023-08-26T00:00 | 3 | 210 | 2 | 17.6 | 16.3 | 997 | 1009 | 10 | 0 | 1 | 26009 10393 32102 10176 20163 39968 40089 71001615 8//// |
| 2023-08-26T01:00 | 7 | 210 | 2 | 17.6 | 16.1 | 997 | 1009 | 26019 10393 72102 10176 20161 39969 40090 7//// 8//// | |||
| 2023-08-26T02:00 | 8 | 190 | 1 | 17.2 | 15.9 | 996 | 1009 | 26029 10393 81901 10172 20159 39965 40086 7//// 8//// | |||
| 2023-08-26T03:00 | 8 | 210 | 2 | 17.6 | 16.0 | 996 | 1008 | 26039 10393 82102 10176 20160 39963 40084 7//// 8//// | |||
| 2023-08-26T04:00 | 8 | 170 | 2 | 17.6 | 16.2 | 996 | 1008 | 26049 10393 81702 10176 20162 39962 40083 7//// 8//// | |||
| 2023-08-26T05:00 | 8 | 180 | 2 | 17.9 | 16.5 | 996 | 1008 | 12 | 3 | 1 | 26059 10393 81802 10179 20165 39964 40085 71231615 8//// |
| 2023-08-26T06:00 | 8 | 210 | 2 | 18.3 | 16.9 | 997 | 1009 | 12 | 3 | 1 | 26069 10393 82102 10183 20169 39969 40090 71231615 8//// |
| 2023-08-26T07:00 | 8 | 210 | 4 | 19.2 | 17.5 | 998 | 1010 | 12 | 3 | 1 | 26079 10393 82104 10192 20175 39981 40102 712316-1 8//// |
| 2023-08-26T08:00 | 8 | 220 | 3 | 19.6 | 17.8 | 998 | 1010 | 12 | 3 | 1 | 26089 10393 82203 10196 20178 39983 40104 712316-1 8//// |
| 2023-08-26T09:00 | 8 | 220 | 3 | 20.5 | 17.5 | 998 | 1010 | 16 | 1 | 1 | 26099 10393 82203 10205 20175 39981 40101 71611615 8//// |
| 2023-08-26T10:00 | 7 | 230 | 4 | 20.8 | 18.4 | 998 | 1010 | 12 | 3 | 1 | 26109 10393 72304 10208 20184 39981 40101 71231615 8//// |
| 2023-08-26T11:00 | 7 | 260 | 5 | 22.6 | 17.3 | 998 | 1010 | 26119 10393 72605 10226 20173 39982 40101 7//// 8//// | |||
| 2023-08-26T12:00 | 4 | 270 | 6 | 24.2 | 17.6 | 998 | 1010 | 10 | 0 | 1 | 26129 10393 42706 10242 20176 39983 40102 71001615 8//// |
| 2023-08-26T13:00 | 2 | 240 | 8 | 24.8 | 14.5 | 998 | 1010 | 26139 10393 22408 10248 20145 39982 40101 7//// 8//// | |||
| 2023-08-26T14:00 | 1 | 250 | 7 | 25.3 | 12.7 | 998 | 1010 | 26149 10393 12507 10253 20127 39983 40101 7//// 8//// | |||
| 2023-08-26T15:00 | 7 | 260 | 8 | 24.4 | 12.1 | 999 | 1011 | 26159 10393 72608 10244 20121 39988 40107 7//// 8//// | |||
| 2023-08-26T16:00 | 8 | 260 | 5 | 23.6 | 10.6 | 999 | 1011 | 26169 10393 82605 10236 20106 39988 40107 7//// 8//// | |||
| 2023-08-26T17:00 | 8 | 280 | 3 | 22.1 | 13.0 | 999 | 1011 | 26179 10393 82803 10221 20130 39989 40109 7//// 8//// | |||
| 2023-08-26T18:00 | 8 | 290 | 4 | 20.3 | 10.7 | 1000 | 1012 | 26189 10393 82904 10203 20107 39997 40118 7//// 8//// | |||
| 2023-08-26T19:00 | 8 | 310 | 2 | 18.2 | 11.7 | 1000 | 1012 | 10 | 0 | 1 | 26199 10393 83102 10182 20117 39998 40120 710011-1 8//// |
| 2023-08-26T20:00 | 8 | 320 | 2 | 18.5 | 12.2 | 1000 | 1012 | 26209 10393 83202 10185 20122 39999 40120 7//// 8//// | |||
| 2023-08-26T21:00 | 8 | 350 | 1 | 17.1 | 12.9 | 1000 | 1012 | 12 | 3 | 1 | 26219 10393 83501 10171 20129 30002 40124 71231611 8//// |
| 2023-08-26T22:00 | 8 | 160 | 1 | 17.6 | 12.8 | 1001 | 1013 | 26229 10393 81601 10176 20128 30006 40128 7//// 8//// | |||
| 2023-08-26T23:00 | 8 | 140 | 2 | 17.5 | 13.5 | 1000 | 1013 | 26239 10393 81402 10175 20135 30005 40127 7//// 8//// | |||
| 2023-08-27T00:00 | 8 | 220 | 1 | 17.2 | 13.0 | 1000 | 1012 | 12 | 3 | 1 | 27009 10393 82201 10172 20130 39998 40120 71231615 8//// |
| 2023-08-27T01:00 | 8 | 200 | 1 | 16.6 | 12.9 | 1000 | 1012 | 27019 10393 82001 10166 20129 39997 40119 7//// 8//// | |||
| 2023-08-27T02:00 | 8 | 170 | 0 | 16.3 | 12.5 | 1000 | 1012 | 27029 10393 81700 10163 20125 39996 40118 7//// 8//// | |||
| 2023-08-27T03:00 | 8 | 130 | 2 | 16.1 | 11.8 | 999 | 1012 | 27039 10393 81302 10161 20118 39993 40115 7//// 8//// | |||
| 2023-08-27T04:00 | 7 | 130 | 1 | 15.6 | 12.0 | 999 | 1012 | 27049 10393 71301 10156 20120 39993 40116 7//// 8//// | |||
| 2023-08-27T05:00 | 8 | 100 | 2 | 16.4 | 11.7 | 999 | 1011 | 27059 10393 81002 10164 20117 39990 40112 7//// 8//// | |||
| 2023-08-27T06:00 | 8 | 90 | 2 | 16.8 | 12.5 | 999 | 1011 | 27069 10393 80902 10168 20125 39988 40110 7//// 8//// | |||
| 2023-08-27T07:00 | 8 | 110 | 1 | 17.6 | 12.4 | 999 | 1011 | 10 | 0 | 1 | 27079 10393 81101 10176 20124 39989 40111 710011-1 8//// |
| 2023-08-27T08:00 | 8 | 140 | 1 | 18.0 | 12.0 | 999 | 1012 | 10 | 0 | 1 | 27089 10393 81401 10180 20120 39994 40116 710011-1 8//// |
| 2023-08-27T09:00 | 8 | 90 | 3 | 16.9 | 11.4 | 999 | 1011 | 12 | 3 | 1 | 27099 10393 80903 10169 20114 39986 40108 71231615 8//// |
| 2023-08-27T10:00 | 8 | 90 | 2 | 18.8 | 11.2 | 998 | 1010 | 10 | 0 | 1 | 27109 10393 80902 10188 20112 39981 40102 710011-1 8//// |
| 2023-08-27T11:00 | 8 | 50 | 1 | 19.1 | 11.0 | 998 | 1010 | 10 | 0 | 1 | 27119 10393 80501 10191 20110 39983 40104 710011-1 8//// |
| 2023-08-27T12:00 | 8 | 70 | 2 | 19.4 | 11.0 | 998 | 1010 | 15 | 1 | 1 | 27129 10393 80702 10194 20110 39976 40097 71511615 8//// |
| 2023-08-27T13:00 | 8 | 80 | 3 | 19.2 | 13.1 | 997 | 1009 | 12 | 3 | 1 | 27139 10393 80803 10192 20131 39971 40092 71231615 8//// |
| 2023-08-27T14:00 | 8 | 130 | 2 | 19.7 | 12.3 | 997 | 1009 | 16 | 1 | 1 | 27149 10393 81302 10197 20123 39969 40090 71611615 8//// |
| 2023-08-27T15:00 | 8 | 150 | 2 | 19.0 | 12.3 | 997 | 1009 | 16 | 1 | 1 | 27159 10393 81502 10190 20123 39967 40088 71611615 8//// |
| 2023-08-27T16:00 | 7 | 170 | 1 | 17.1 | 14.5 | 997 | 1009 | 16 | 1 | 1 | 27169 10393 71701 10171 20145 39971 40093 71611616 8//// |
| 2023-08-27T17:00 | 8 | 130 | 1 | 16.7 | 15.1 | 997 | 1009 | 16 | 1 | 1 | 27179 10393 81301 10167 20151 39968 40090 71611616 8//// |
| 2023-08-27T18:00 | 8 | 130 | 1 | 16.2 | 15.0 | 997 | 1009 | 16 | 1 | 1 | 27189 10393 81301 10162 20150 39969 40091 71611615 8//// |
| 2023-08-27T19:00 | 8 | 140 | 2 | 16.0 | 15.0 | 997 | 1009 | 12 | 3 | 1 | 27199 10393 81402 10160 20150 39972 40094 71231615 8//// |
| 2023-08-27T20:00 | 8 | 170 | 1 | 16.1 | 15.3 | 997 | 1009 | 12 | 3 | 1 | 27209 10393 81701 10161 20153 39971 40093 712316-1 8//// |
| 2023-08-27T21:00 | 8 | 190 | 2 | 16.3 | 15.6 | 997 | 1009 | 12 | 3 | 1 | 27219 10393 81902 10163 20156 39972 40094 71231615 8//// |
| 2023-08-27T22:00 | 8 | 220 | 3 | 16.3 | 15.1 | 997 | 1010 | 12 | 3 | 1 | 27229 10393 82203 10163 20151 39974 40096 71231615 8//// |
| 2023-08-27T23:00 | 8 | 230 | 2 | 15.9 | 14.8 | 997 | 1010 | 27239 10393 82302 10159 20148 39974 40096 7//// 8//// | |||
| 2023-08-28T00:00 | 8 | 250 | 4 | 15.5 | 13.8 | 998 | 1010 | 10 | 0 | 1 | 28009 10393 82504 10155 20138 39977 40099 71001615 8//// |
| 2023-08-28T01:00 | 8 | 250 | 3 | 14.6 | 13.1 | 998 | 1010 | 28019 10393 82503 10146 20131 39980 40103 7//// 8//// | |||
| 2023-08-28T02:00 | 0 | 270 | 4 | 13.9 | 11.9 | 998 | 1011 | 28029 10393 02704 10139 20119 39984 40107 7//// 8//// | |||
| 2023-08-28T03:00 | 0 | 280 | 3 | 13.0 | 11.3 | 998 | 1011 | 28039 10393 02803 10130 20113 39984 40108 7//// 8//// | |||
| 2023-08-28T04:00 | 8 | 260 | 3 | 12.1 | 10.5 | 999 | 1012 | 28049 10393 82603 10121 20105 39993 40117 7//// 8//// | |||
| 2023-08-28T05:00 | 5 | 240 | 2 | 11.9 | 10.5 | 999 | 1012 | 28059 10393 52402 10119 20105 39991 40115 7//// 8//// | |||
| 2023-08-28T06:00 | 8 | 270 | 3 | 12.6 | 10.8 | 999 | 1011 | 28069 10393 82703 10126 20108 39990 40114 7//// 8//// | |||
| 2023-08-28T07:00 | 8 | 230 | 3 | 13.1 | 11.1 | 999 | 1012 | 28079 10393 82303 10131 20111 39993 40117 7//// 8//// | |||
| 2023-08-28T08:00 | 8 | 230 | 3 | 14.1 | 11.3 | 1000 | 1012 | 28089 10393 82303 10141 20113 39997 40120 7//// 8//// | |||
| 2023-08-28T09:00 | 8 | 260 | 3 | 14.8 | 11.5 | 999 | 1012 | 28099 10393 82603 10148 20115 39994 40117 7//// 8//// | |||
| 2023-08-28T10:00 | 8 | 230 | 2 | 15.5 | 11.2 | 1000 | 1012 | 28109 10393 82302 10155 20112 39997 40120 7//// 8//// | |||
| 2023-08-28T11:00 | 8 | 260 | 3 | 16.6 | 11.4 | 999 | 1011 | 28119 10393 82603 10166 20114 39992 40114 7//// 8//// | |||
| 2023-08-28T12:00 | 8 | 270 | 3 | 17.1 | 10.4 | 1000 | 1012 | 28129 10393 82703 10171 20104 39995 40117 7//// 8//// | |||
| 2023-08-28T13:00 | 8 | 280 | 2 | 17.4 | 10.7 | 999 | 1012 | 28139 10393 82802 10174 20107 39993 40115 7//// 8//// | |||
| 2023-08-28T14:00 | 8 | 320 | 1 | 17.6 | 10.5 | 999 | 1011 | 28149 10393 83201 10176 20105 39987 40109 7//// 8//// | |||
| 2023-08-28T15:00 | 8 | 190 | 2 | 17.0 | 11.8 | 999 | 1012 | 28159 10393 81902 10170 20118 39994 40116 7//// 8//// | |||
| 2023-08-28T16:00 | 8 | 180 | 1 | 16.9 | 12.1 | 999 | 1011 | 28169 10393 81801 10169 20121 39991 40113 7//// 8//// | |||
| 2023-08-28T17:00 | 8 | 210 | 1 | 16.5 | 12.1 | 999 | 1011 | 28179 10393 82101 10165 20121 39990 40112 7//// 8//// | |||
| 2023-08-28T18:00 | 8 | 140 | 1 | 15.6 | 12.7 | 999 | 1011 | 28189 10393 81401 10156 20127 39991 40114 7//// 8//// | |||
| 2023-08-28T19:00 | 8 | 260 | 1 | 14.9 | 12.9 | 999 | 1012 | 28199 10393 82601 10149 20129 39993 40116 7//// 8//// | |||
| 2023-08-28T20:00 | 8 | 150 | 1 | 14.8 | 13.0 | 999 | 1012 | 28209 10393 81501 10148 20130 39993 40116 7//// 8//// | |||
| 2023-08-28T21:00 | 8 | 190 | 1 | 14.5 | 13.2 | 999 | 1011 | 12 | 3 | 1 | 28219 10393 81901 10145 20132 39988 40111 71231615 8//// |
| 2023-08-28T22:00 | 8 | 280 | 2 | 14.3 | 13.4 | 999 | 1011 | 12 | 3 | 1 | 28229 10393 82802 10143 20134 39987 40110 71231615 8//// |
| 2023-08-28T23:00 | 8 | 140 | 2 | 14.1 | 13.3 | 999 | 1011 | 28239 10393 81402 10141 20133 39987 40110 7//// 8//// | |||
| 2023-08-29T00:00 | 8 | 350 | 0 | 14.1 | 13.4 | 998 | 1010 | 16 | 1 | 1 | 29009 10393 83500 10141 20134 39980 40103 71611615 8//// |
| 2023-08-29T01:00 | 8 | 10 | 1 | 14.1 | 13.5 | 997 | 1010 | 16 | 1 | 1 | 29019 10393 80101 10141 20135 39973 40096 71611615 8//// |
| 2023-08-29T02:00 | 8 | 120 | 0 | 14.0 | 13.4 | 998 | 1010 | 12 | 3 | 1 | 29029 10393 81200 10140 20134 39975 40098 71231615 8//// |
| 2023-08-29T03:00 | 7 | 80 | 2 | 13.9 | 13.4 | 997 | 1009 | 15 | 7 | 1 | 29039 10393 70802 10139 20134 39969 40092 71571615 8//// |
| 2023-08-29T04:00 | 7 | 60 | 1 | 13.9 | 13.1 | 996 | 1009 | 15 | 1 | 1 | 29049 10393 70601 10139 20131 39963 40086 71511615 8//// |
| 2023-08-29T05:00 | 7 | 40 | 1 | 13.7 | 12.9 | 996 | 1008 | 15 | 1 | 1 | 29059 10393 70401 10137 20129 39960 40083 71511615 8//// |
| 2023-08-29T06:00 | 8 | 340 | 1 | 14.0 | 12.8 | 996 | 1008 | 16 | 1 | 1 | 29069 10393 83401 10140 20128 39960 40083 71611615 8//// |
| 2023-08-29T07:00 | 7 | 40 | 1 | 13.9 | 12.9 | 997 | 1009 | 16 | 2 | 1 | 29079 10393 70401 10139 20129 39968 40091 71621615 8//// |
| 2023-08-29T08:00 | 7 | 340 | 2 | 14.1 | 13.3 | 997 | 1009 | 15 | 7 | 1 | 29089 10393 73402 10141 20133 39967 40090 71571616 8//// |
| 2023-08-29T09:00 | 7 | 350 | 3 | 14.4 | 13.1 | 996 | 1009 | 15 | 7 | 1 | 29099 10393 73503 10144 20131 39965 40088 71571615 8//// |
| 2023-08-29T10:00 | 8 | 360 | 3 | 14.8 | 13.4 | 996 | 1009 | 15 | 2 | 1 | 29109 10393 83603 10148 20134 39964 40087 71521615 8//// |
| 2023-08-29T11:00 | 8 | 360 | 2 | 15.1 | 13.2 | 996 | 1008 | 12 | 3 | 1 | 29119 10393 83602 10151 20132 39962 40084 71231615 8//// |
| 2023-08-29T12:00 | 8 | 10 | 2 | 15.5 | 12.7 | 996 | 1008 | 10 | 0 | 1 | 29129 10393 80102 10155 20127 39960 40082 71001615 8//// |
| 2023-08-29T13:00 | 7 | 10 | 3 | 14.1 | 12.5 | 996 | 1008 | 15 | 2 | 1 | 29139 10393 70103 10141 20125 39962 40085 71521615 8//// |
| 2023-08-29T14:00 | 8 | 350 | 2 | 14.2 | 12.7 | 996 | 1008 | 15 | 7 | 1 | 29149 10393 83502 10142 20127 39960 40083 71571615 8//// |
| 2023-08-29T15:00 | 7 | 330 | 2 | 14.1 | 13.1 | 996 | 1008 | 15 | 7 | 1 | 29159 10393 73302 10141 20131 39960 40083 71571615 8//// |
| 2023-08-29T16:00 | 7 | 330 | 2 | 14.3 | 13.5 | 996 | 1008 | 15 | 7 | 1 | 29169 10393 73302 10143 20135 39959 40082 71571615 8//// |
| 2023-08-29T17:00 | 7 | 320 | 2 | 14.4 | 13.8 | 996 | 1008 | 15 | 2 | 1 | 29179 10393 73202 10144 20138 39959 40082 71521615 8//// |
| 2023-08-29T18:00 | 8 | 320 | 2 | 14.3 | 13.6 | 996 | 1008 | 12 | 3 | 1 | 29189 10393 83202 10143 20136 39958 40081 71231615 8//// |
| 2023-08-29T19:00 | 7 | 310 | 2 | 14.2 | 13.6 | 996 | 1008 | 15 | 7 | 1 | 29199 10393 73102 10142 20136 39962 40085 71571615 8//// |
| 2023-08-29T20:00 | 7 | 330 | 3 | 13.8 | 13.1 | 996 | 1008 | 15 | 1 | 1 | 29209 10393 73303 10138 20131 39960 40083 71511615 8//// |
| 2023-08-29T21:00 | 8 | 350 | 3 | 13.5 | 12.6 | 996 | 1008 | 15 | 7 | 1 | 29219 10393 83503 10135 20126 39959 40082 71571615 8//// |
| 2023-08-29T22:00 | 8 | 330 | 3 | 13.2 | 12.4 | 996 | 1008 | 12 | 3 | 1 | 29229 10393 83303 10132 20124 39958 40081 71231615 8//// |
| 2023-08-29T23:00 | 8 | 320 | 2 | 13.4 | 13.0 | 996 | 1008 | 15 | 7 | 1 | 29239 10393 83202 10134 20130 39959 40082 71571615 8//// |
| 2023-08-30T00:00 | 8 | 340 | 2 | 13.2 | 12.5 | 996 | 1008 | 15 | 1 | 1 | 30009 10393 83402 10132 20125 39955 40078 71511615 8//// |
| 2023-08-30T01:00 | 8 | 300 | 1 | 13.0 | 12.3 | 995 | 1008 | 12 | 2 | 1 | 30019 10393 83001 10130 20123 39954 40077 712215-1 8//// |
| 2023-08-30T02:00 | 8 | 280 | 2 | 13.2 | 12.7 | 995 | 1008 | 30029 10393 82802 10132 20127 39953 40076 7//// 8//// | |||
| 2023-08-30T03:00 | 8 | 300 | 3 | 13.3 | 12.7 | 995 | 1007 | 10 | 0 | 1 | 30039 10393 83003 10133 20127 39949 40072 710015-1 8//// |
| 2023-08-30T04:00 | 8 | 290 | 3 | 13.6 | 12.9 | 995 | 1008 | 30049 10393 82903 10136 20129 39954 40077 7//// 8//// | |||
| 2023-08-30T05:00 | 8 | 280 | 3 | 13.7 | 13.0 | 996 | 1008 | 10 | 0 | 1 | 30059 10393 82803 10137 20130 39955 40078 710011-1 8//// |
| 2023-08-30T06:00 | 8 | 300 | 3 | 13.6 | 12.9 | 995 | 1008 | 10 | 0 | 1 | 30069 10393 83003 10136 20129 39953 40076 71001511 8//// |
| 2023-08-30T07:00 | 8 | 290 | 3 | 14.2 | 13.2 | 995 | 1008 | 30079 10393 82903 10142 20132 39953 40076 7//// 8//// | |||
| 2023-08-30T08:00 | 8 | 300 | 2 | 14.7 | 13.1 | 996 | 1008 | 30089 10393 83002 10147 20131 39957 40080 7//// 8//// | |||
| 2023-08-30T09:00 | 8 | 300 | 2 | 15.9 | 13.3 | 996 | 1008 | 30099 10393 83002 10159 20133 39956 40078 7//// 8//// | |||
| 2023-08-30T10:00 | 8 | 300 | 2 | 16.5 | 12.8 | 996 | 1008 | 30109 10393 83002 10165 20128 39956 40078 7//// 8//// | |||
| 2023-08-30T11:00 | 8 | 310 | 1 | 17.9 | 11.5 | 995 | 1007 | 30119 10393 83101 10179 20115 39953 40074 7//// 8//// | |||
| 2023-08-30T12:00 | 8 | 260 | 2 | 18.4 | 11.1 | 995 | 1007 | 30129 10393 82602 10184 20111 39953 40074 7//// 8//// | |||
| 2023-08-30T13:00 | 7 | 270 | 3 | 18.9 | 11.1 | 995 | 1007 | 30139 10393 72703 10189 20111 39951 40072 7//// 8//// | |||
| 2023-08-30T14:00 | 8 | 250 | 1 | 18.4 | 12.0 | 995 | 1007 | 30149 10393 82501 10184 20120 39949 40070 7//// 8//// | |||
| 2023-08-30T15:00 | 8 | 250 | 2 | 18.4 | 12.9 | 995 | 1007 | 30159 10393 82502 10184 20129 39947 40068 7//// 8//// | |||
| 2023-08-30T16:00 | 8 | 260 | 2 | 17.9 | 13.1 | 995 | 1007 | 30169 10393 82602 10179 20131 39946 40067 7//// 8//// | |||
| 2023-08-30T17:00 | 8 | 230 | 1 | 17.1 | 13.5 | 995 | 1007 | 30179 10393 82301 10171 20135 39946 40067 7//// 8//// | |||
| 2023-08-30T18:00 | 8 | 180 | 1 | 16.1 | 13.2 | 994 | 1007 | 30189 10393 81801 10161 20132 39944 40066 7//// 8//// | |||
| 2023-08-30T19:00 | 6 | 130 | 2 | 15.2 | 12.9 | 995 | 1007 | 30199 10393 61302 10152 20129 39946 40068 7//// 8//// | |||
| 2023-08-30T20:00 | 6 | 140 | 2 | 15.0 | 12.9 | 994 | 1007 | 30209 10393 61402 10150 20129 39945 40067 7//// 8//// | |||
| 2023-08-30T21:00 | 8 | 140 | 2 | 14.8 | 12.7 | 994 | 1006 | 30219 10393 81402 10148 20127 39943 40065 7//// 8//// | |||
| 2023-08-30T22:00 | 8 | 140 | 2 | 14.0 | 12.3 | 994 | 1006 | 30229 10393 81402 10140 20123 39941 40064 7//// 8//// | |||
| 2023-08-30T23:00 | 7 | 140 | 2 | 13.7 | 11.7 | 994 | 1006 | 30239 10393 71402 10137 20117 39941 40064 7//// 8//// | |||
| 2023-08-31T00:00 | 4 | 150 | 2 | 13.1 | 11.7 | 994 | 1006 | 31009 10393 41502 10131 20117 39939 40062 7//// 8//// | |||
| 2023-08-31T01:00 | 3 | 200 | 2 | 12.6 | 11.3 | 994 | 1006 | 31019 10393 32002 10126 20113 39940 40063 7//// 8//// | |||
| 2023-08-31T02:00 | 8 | 230 | 2 | 13.0 | 11.4 | 994 | 1006 | 31029 10393 82302 10130 20114 39938 40061 7//// 8//// | |||
| 2023-08-31T03:00 | 8 | 260 | 5 | 13.4 | 11.4 | 994 | 1007 | 31039 10393 82605 10134 20114 39943 40066 7//// 8//// | |||
| 2023-08-31T04:00 | 8 | 260 | 3 | 12.9 | 11.7 | 995 | 1007 | 12 | 3 | 1 | 31049 10393 82603 10129 20117 39947 40070 71231615 8//// |
| 2023-08-31T05:00 | 8 | 260 | 3 | 12.7 | 11.6 | 995 | 1008 | 12 | 3 | 1 | 31059 10393 82603 10127 20116 39952 40075 712316-1 8//// |
| 2023-08-31T06:00 | 8 | 250 | 4 | 13.1 | 11.4 | 996 | 1008 | 10 | 0 | 1 | 31069 10393 82504 10131 20114 39957 40080 71001615 8//// |
| 2023-08-31T07:00 | 8 | 250 | 4 | 13.6 | 11.7 | 996 | 1008 | 31079 10393 82504 10136 20117 39962 40085 7//// 8//// | |||
| 2023-08-31T08:00 | 8 | 260 | 4 | 14.2 | 12.3 | 997 | 1009 | 12 | 3 | 1 | 31089 10393 82604 10142 20123 39968 40091 71231615 8//// |
| 2023-08-31T09:00 | 7 | 240 | 5 | 14.8 | 11.9 | 997 | 1009 | 10 | 0 | 1 | 31099 10393 72405 10148 20119 39971 40094 71001615 8//// |
| 2023-08-31T10:00 | 7 | 260 | 6 | 16.1 | 10.2 | 997 | 1010 | 31109 10393 72606 10161 20102 39973 40095 7//// 8//// | |||
| 2023-08-31T11:00 | 8 | 240 | 5 | 15.3 | 11.3 | 997 | 1010 | 12 | 3 | 1 | 31119 10393 82405 10153 20113 39974 40097 712316-1 8//// |
| 2023-08-31T12:00 | 7 | 240 | 6 | 15.1 | 9.6 | 998 | 1010 | 16 | 1 | 1 | 31129 10393 72406 10151 20096 39976 40099 71611615 8//// |
| 2023-08-31T13:00 | 6 | 240 | 5 | 17.1 | 10.4 | 997 | 1010 | 12 | 3 | 1 | 31139 10393 62405 10171 20104 39974 40096 712316-1 8//// |
| 2023-08-31T14:00 | 8 | 230 | 6 | 16.6 | 10.6 | 998 | 1010 | 16 | 1 | 1 | 31149 10393 82306 10166 20106 39980 40102 716116-1 8//// |
| 2023-08-31T15:00 | 8 | 240 | 5 | 15.2 | 9.4 | 998 | 1010 | 12 | 3 | 1 | 31159 10393 82405 10152 20094 39982 40105 71231615 8//// |
| 2023-08-31T16:00 | 8 | 250 | 5 | 14.2 | 9.8 | 999 | 1011 | 12 | 3 | 1 | 31169 10393 82505 10142 20098 39987 40110 71231615 8//// |
| 2023-08-31T17:00 | 1 | 230 | 3 | 14.1 | 11.0 | 999 | 1011 | 31179 10393 12303 10141 20110 39986 40109 7//// 8//// | |||
| 2023-08-31T18:00 | 1 | 230 | 3 | 13.4 | 10.5 | 998 | 1011 | 10 | 0 | 1 | 31189 10393 12303 10134 20105 39985 40109 71001615 8//// |
| 2023-08-31T19:00 | 7 | 270 | 3 | 12.8 | 10.1 | 999 | 1011 | 31199 10393 72703 10128 20101 39990 40114 7//// 8//// | |||
| 2023-08-31T20:00 | 8 | 230 | 3 | 12.1 | 10.0 | 999 | 1012 | 31209 10393 82303 10121 20100 39991 40115 7//// 8//// | |||
| 2023-08-31T21:00 | 7 | 230 | 3 | 12.0 | 10.1 | 1000 | 1012 | 12 | 3 | 1 | 31219 10393 72303 10120 20101 39997 40121 71231615 8//// |
| 2023-08-31T22:00 | 8 | 220 | 4 | 11.7 | 9.5 | 1000 | 1013 | 31229 10393 82204 10117 20095 30002 40127 7//// 8//// | |||
| 2023-08-31T23:00 | 3 | 230 | 3 | 11.7 | 9.6 | 1000 | 1013 | 31239 10393 32303 10117 20096 30004 40129 7//// 8//// |
